FW3681 Weather Reports


Display with metric or nautical units.
time (UTC)temp
F
wind
direction
speed
MPH
gust
MPH
rain 1hr
in
rain 24hr
in
rain mn
in
humidity
%
barometer
mb
20260510152604 70 297 3.0 4.0 0.00 0.77 0.01 84 1017.4
20260510152506 70 292 3.0 4.0 0.00 0.77 0.01 83 1017.4
20260510152403 71 330 4.0 4.0 0.00 0.77 0.01 83 1017.4
20260510152301 71 307 3.0 4.0 0.00 0.77 0.01 83 1017.5
20260510152202 71 273 2.0 4.0 0.00 0.77 0.01 82 1017.4
20260510152103 71 254 2.0 4.0 0.00 0.77 0.01 83 1017.4
20260510152007 71 288 2.0 4.0 0.00 0.77 0.01 84 1017.4
20260510151902 71 273 2.0 4.0 0.00 0.77 0.01 85 1017.4
20260510151803 71 314 1.0 4.0 0.00 0.77 0.01 84 1017.4
20260510151703 71 219 0.0 4.0 0.00 0.77 0.01 84 1017.5
20260510151602 71 185 2.0 5.0 0.00 0.77 0.01 85 1017.5
20260510151506 70 240 3.0 5.0 0.00 0.77 0.01 85 1017.5
20260510151401 70 211 1.0 5.0 0.00 0.77 0.01 84 1017.4
20260510151302 70 296 2.0 5.0 0.00 0.77 0.01 84 1017.3
20260510151202 70 321 4.0 5.0 0.00 0.77 0.01 84 1017.3
20260510151101 70 319 1.0 5.0 0.00 0.77 0.01 85 1017.3
20260510150901 70 18 0.0 5.0 0.00 0.77 0.01 86 1017.3
20260510150803 70 312 0.0 5.0 0.00 0.77 0.01 85 1017.3
20260510150704 70 214 0.0 5.0 0.00 0.77 0.01 85 1017.2
20260510150603 70 252 1.0 5.0 0.00 0.77 0.01 84 1017.3
20260510150505 70 227 1.0 5.0 0.00 0.77 0.01 83 1017.2
20260510150402 70 167 3.0 3.0 0.00 0.77 0.01 84 1017.1
20260510150202 70 20 1.0 3.0 0.00 0.77 0.01 86 1017.1
20260510150008 70 135 0.0 3.0 0.00 0.77 0.01 87 1017.2
20260510145801 70 300 1.0 3.0 0.00 0.94 0.01 88 1017.2
20260510145703 70 309 2.0 3.0 0.00 0.94 0.01 88 1017.2
20260510145602 69 323 1.0 3.0 0.00 0.94 0.01 88 1017.3
20260510145402 69 330 1.0 4.0 0.00 0.94 0.01 89 1017.2
20260510145305 69 328 0.0 4.0 0.00 0.94 0.01 89 1017.4
20260510145201 69 251 0.0 4.0 0.00 0.94 0.01 89 1017.4
20260510145102 69 296 0.0 6.0 0.00 0.94 0.01 89 1017.3
20260510145005 69 135 0.0 6.0 0.00 0.94 0.01 90 1017.4
20260510144902 68 305 1.0 6.0 0.00 0.94 0.01 90 1017.4
20260510144802 68 314 0.0 6.0 0.00 0.94 0.01 90 1017.4
20260510144602 68 324 3.0 6.0 0.00 0.94 0.01 90 1017.5
20260510144505 68 345 3.0 6.0 0.00 0.94 0.01 90 1017.4
20260510144402 68 338 3.0 6.0 0.00 0.94 0.01 91 1017.5
20260510144302 68 331 3.0 6.0 0.00 0.94 0.01 91 1017.5
20260510144202 68 300 2.0 5.0 0.00 0.94 0.01 91 1017.4
20260510144103 68 110 0.0 5.0 0.00 0.94 0.01 92 1017.4
20260510144006 68 132 0.0 5.0 0.00 0.94 0.01 92 1017.4
20260510143903 67 349 3.0 5.0 0.00 0.94 0.01 92 1017.4
20260510143802 67 300 1.0 5.0 0.00 0.94 0.01 92 1017.5
20260510143703 67 347 4.0 5.0 0.00 0.94 0.01 92 1017.4
20260510143602 68 309 3.0 4.0 0.00 0.94 0.01 92 1017.4
20260510143505 68 324 2.0 3.0 0.00 0.94 0.01 92 1017.4
20260510143302 68 312 2.0 6.0 0.00 0.94 0.01 93 1017.3
20260510143202 68 309 0.0 7.0 0.00 0.94 0.01 93 1017.4
20260510143007 67 4 0.0 7.0 0.00 0.94 0.01 93 1017.3
20260510142902 67 331 2.0 7.0 0.00 0.94 0.01 93 1017.2
20260510142802 67 8 3.0 7.0 0.00 0.94 0.01 93 1017.2
20260510142702 67 11 3.0 7.0 0.00 0.94 0.01 93 1017.2
20260510142604 67 356 2.0 7.0 0.00 0.94 0.01 93 1017.1
20260510142505 67 321 3.0 7.0 0.00 0.94 0.01 94 1017.1
20260510142402 67 26 2.0 7.0 0.00 0.94 0.01 94 1017.1
20260510142305 67 340 5.0 5.0 0.00 0.94 0.01 94 1017.1
20260510142202 67 354 3.0 5.0 0.00 0.94 0.01 94 1017.1
20260510142103 67 354 0.0 5.0 0.00 0.94 0.01 94 1017.1
20260510142006 67 351 5.0 5.0 0.00 0.94 0.01 95 1017.1
20260510141903 67 346 1.0 3.0 0.00 0.94 0.01 95 1017.1
20260510141803 67 105 0.0 3.0 0.00 0.94 0.01 95 1017.1
20260510141703 67 309 2.0 3.0 0.00 0.94 0.01 95 1017.0
20260510141602 67 323 0.0 3.0 0.00 0.94 0.01 95 1017.0
20260510141506 67 150 1.0 3.0 0.00 0.94 0.01 95 1017.0
20260510141302 67 146 0.0 4.0 0.00 0.94 0.01 95 1017.0
20260510141202 67 77 0.0 4.0 0.00 0.94 0.01 95 1017.1
20260510141103 67 286 0.0 4.0 0.00 0.94 0.01 95 1017.0
20260510141006 67 18 1.0 4.0 0.00 0.94 0.01 95 1017.0
20260510140902 67 105 1.0 4.0 0.00 0.94 0.01 96 1017.0
20260510140803 67 356 0.0 4.0 0.00 0.94 0.01 96 1017.1
20260510140703 67 20 0.0 4.0 0.00 0.94 0.01 96 1017.1
20260510140603 66 13 1.0 4.0 0.00 0.94 0.01 96 1017.1
20260510140301 66 50 0.0 4.0 0.00 0.94 0.01 96 1017.1
20260510140202 66 110 0.0 4.0 0.00 0.94 0.01 96 1017.1
20260510135902 66 340 0.0 4.0 0.00 1.31 0.01 96 1017.0
20260510135801 66 12 0.0 4.0 0.00 1.31 0.01 96 1017.1
20260510135700 66 328 0.0 4.0 0.00 1.31 0.01 96 1017.1
20260510135602 66 328 0.0 4.0 0.00 1.31 0.01 96 1017.1
20260510135505 66 81 2.0 4.0 0.00 1.31 0.01 96 1017.1
20260510135401 66 78 0.0 5.0 0.00 1.31 0.01 96 1017.1
20260510135301 66 155 0.0 5.0 0.00 1.31 0.01 96 1017.1
20260510135202 66 64 2.0 5.0 0.00 1.31 0.01 96 1017.1
20260510135006 66 188 2.0 5.0 0.00 1.31 0.01 97 1017.0
20260510134901 65 127 0.0 5.0 0.00 1.31 0.01 97 1016.9
20260510134801 65 127 0.0 5.0 0.00 1.31 0.01 97 1016.8
20260510134703 65 107 0.0 5.0 0.00 1.31 0.01 97 1016.9
20260510134505 65 115 4.0 5.0 0.00 1.31 0.01 97 1016.8
20260510134400 65 77 0.0 5.0 0.00 1.31 0.01 97 1016.7
20260510134101 65 213 3.0 6.0 0.00 1.31 0.01 97 1016.6
20260510134006 65 162 0.0 6.0 0.00 1.31 0.01 97 1016.6
20260510133901 65 115 3.0 6.0 0.00 1.31 0.01 97 1016.7
20260510133801 65 202 2.0 6.0 0.00 1.31 0.01 97 1016.6
20260510133702 65 77 2.0 6.0 0.00 1.31 0.01 97 1016.7
20260510133601 65 134 1.0 6.0 0.00 1.31 0.01 97 1016.6
20260510133506 65 139 3.0 6.0 0.00 1.31 0.01 97 1016.6
20260510133401 65 143 1.0 6.0 0.00 1.31 0.01 97 1016.6
20260510133301 65 60 2.0 6.0 0.00 1.31 0.01 97 1016.6
20260510133101 65 106 2.0 6.0 0.00 1.31 0.01 97 1016.6
20260510133006 65 124 4.0 6.0 0.00 1.31 0.01 97 1016.6
20260510132900 65 124 4.0 4.0 0.00 1.31 0.01 97 1016.6
20260510132800 65 110 2.0 3.0 0.00 1.31 0.01 97 1016.7
20260510132601 65 125 0.0 3.0 0.00 1.31 0.01 97 1016.6
20260510132504 65 125 1.0 5.0 0.00 1.31 0.01 97 1016.7
20260510132301 65 137 0.0 5.0 0.00 1.31 0.01 97 1016.6
20260510132201 65 183 0.0 5.0 0.00 1.31 0.01 97 1016.6
20260510132102 65 85 0.0 5.0 0.00 1.31 0.01 97 1016.7
20260510132006 65 127 0.0 5.0 0.00 1.31 0.01 97 1016.7
20260510131801 65 116 0.0 5.0 0.00 1.31 0.01 97 1016.7
20260510131701 65 88 1.0 5.0 0.00 1.31 0.01 97 1016.7
20260510131601 65 76 1.0 5.0 0.00 1.31 0.01 97 1016.7
20260510131504 65 85 1.0 4.0 0.00 1.31 0.01 97 1016.7
20260510131401 65 62 3.0 4.0 0.00 1.31 0.01 97 1016.6
20260510131300 65 49 1.0 4.0 0.00 1.31 0.01 97 1016.7
20260510131202 65 48 1.0 4.0 0.00 1.31 0.01 97 1016.6
20260510131102 65 111 2.0 4.0 0.00 1.31 0.01 97 1016.7
20260510131006 65 169 1.0 3.0 0.00 1.31 0.01 97 1016.7
20260510130902 65 136 0.0 3.0 0.00 1.31 0.01 97 1016.7
20260510130800 65 90 0.0 3.0 0.00 1.31 0.01 97 1016.7
20260510130701 65 146 0.0 3.0 0.00 1.31 0.01 97 1016.7
20260510130601 65 25 0.0 3.0 0.00 1.31 0.01 97 1016.6
20260510130505 65 25 0.0 3.0 0.00 1.31 0.01 97 1016.6
20260510130401 65 330 3.0 3.0 0.00 1.31 0.01 97 1016.6
20260510130101 65 123 0.0 3.0 0.00 1.31 0.01 97 1016.6
20260510130007 65 148 2.0 4.0 0.00 1.31 0.01 97 1016.6
20260510125902 65 55 0.0 4.0 0.00 1.32 0.01 97 1016.6
20260510125801 65 55 0.0 4.0 0.00 1.32 0.01 97 1016.6
20260510125703 65 134 0.0 4.0 0.00 1.32 0.01 97 1016.7
20260510125602 65 67 0.0 4.0 0.00 1.32 0.01 97 1016.6
20260510125505 65 55 0.0 4.0 0.00 1.32 0.01 97 1016.6
20260510125403 65 134 0.0 4.0 0.00 1.32 0.01 97 1016.6
20260510125306 65 134 0.0 4.0 0.00 1.32 0.01 97 1016.6
20260510125202 65 162 1.0 4.0 0.00 1.32 0.01 97 1016.6
20260510125102 65 312 0.0 1.0 0.00 1.32 0.01 97 1016.6
20260510124902 65 328 0.0 1.0 0.00 1.32 0.01 97 1016.5
20260510124803 65 328 0.0 1.0 0.00 1.32 0.01 97 1016.4
20260510124702 65 316 1.0 1.0 0.00 1.32 0.01 97 1016.5
20260510124602 65 217 0.0 1.0 0.00 1.32 0.01 97 1016.5
20260510124506 65 318 0.0 1.0 0.00 1.32 0.01 97 1016.5
20260510124402 65 318 0.0 3.0 0.00 1.32 0.01 97 1016.4
20260510124302 65 318 0.0 3.0 0.00 1.32 0.01 97 1016.5
20260510124202 65 318 0.0 3.0 0.00 1.32 0.01 97 1016.4
20260510124006 65 209 0.0 3.0 0.00 1.32 0.01 97 1016.4
20260510123902 65 335 0.0 3.0 0.00 1.32 0.01 97 1016.4
20260510123803 65 335 0.0 3.0 0.00 1.32 0.01 97 1016.3
20260510123702 65 129 0.0 3.0 0.00 1.32 0.01 97 1016.3
20260510123602 65 129 0.0 3.0 0.00 1.32 0.01 97 1016.3
20260510123505 65 146 0.0 2.0 0.00 1.32 0.01 97 1016.3
20260510123403 65 146 0.0 2.0 0.00 1.32 0.01 97 1016.3
20260510123303 65 146 0.0 3.0 0.00 1.32 0.01 97 1016.2
20260510123203 65 59 0.0 3.0 0.00 1.32 0.01 97 1016.2
20260510123102 65 360 0.0 3.0 0.00 1.32 0.01 97 1016.2
20260510123007 65 195 0.0 3.0 0.00 1.32 0.01 97 1016.1
20260510122902 65 199 0.0 3.0 0.00 1.32 0.01 97 1016.2
20260510122803 65 97 0.0 3.0 0.00 1.32 0.01 97 1016.1
20260510122601 65 125 0.0 3.0 0.00 1.32 0.01 97 1016.1
20260510122506 65 148 0.0 3.0 0.00 1.32 0.01 97 1016.1
20260510122402 65 137 0.0 1.0 0.00 1.32 0.01 97 1016.1
20260510122306 65 137 0.0 1.0 0.00 1.32 0.01 97 1016.1
20260510122203 65 162 0.0 1.0 0.00 1.32 0.01 97 1016.2
20260510122103 65 208 0.0 1.0 0.00 1.32 0.01 97 1016.2
20260510122006 65 192 0.0 2.0 0.00 1.32 0.01 97 1016.2
20260510121902 65 192 0.0 3.0 0.00 1.32 0.01 97 1016.3
20260510121802 65 192 0.0 3.0 0.00 1.32 0.01 97 1016.2
20260510121703 64 192 0.0 3.0 0.00 1.32 0.01 97 1016.2
20260510121403 64 192 0.0 3.0 0.00 1.32 0.01 97 1016.3
20260510121302 64 192 0.0 3.0 0.00 1.32 0.01 97 1016.3
20260510121202 64 169 1.0 3.0 0.00 1.32 0.01 97 1016.3
20260510121102 64 153 0.0 3.0 0.00 1.32 0.01 97 1016.3
20260510121006 64 188 3.0 3.0 0.00 1.32 0.01 97 1016.3
20260510120902 64 219 0.0 2.0 0.00 1.32 0.01 97 1016.1
20260510120802 64 219 0.0 2.0 0.00 1.32 0.01 97 1016.3
20260510120701 64 238 0.0 3.0 0.00 1.32 0.01 97 1016.2
20260510120602 64 238 0.0 3.0 0.00 1.32 0.01 97 1016.2
20260510120505 64 209 0.0 3.0 0.00 1.32 0.01 97 1016.2
20260510120402 64 185 0.0 3.0 0.00 1.32 0.01 97 1016.2
20260510120202 64 150 0.0 3.0 0.00 1.32 0.01 97 1016.3
20260510120103 64 150 0.0 3.0 0.00 1.32 0.01 97 1016.3
20260510120008 64 150 0.0 3.0 0.00 1.32 0.01 97 1016.3
20260510115802 64 169 0.0 3.0 0.00 1.32 0.01 97 1016.2
20260510115701 64 198 2.0 3.0 0.00 1.32 0.01 97 1016.1
20260510115602 64 172 0.0 3.0 0.00 1.32 0.01 97 1016.1
20260510115506 64 155 0.0 3.0 0.00 1.32 0.01 97 1016.1
20260510115402 64 187 0.0 3.0 0.00 1.32 0.01 97 1016.0
20260510115305 64 165 0.0 3.0 0.00 1.32 0.01 97 1016.2
20260510115203 64 155 0.0 3.0 0.00 1.32 0.01 97 1016.1
20260510115102 64 155 2.0 3.0 0.00 1.32 0.01 97 1016.1
20260510115006 64 185 0.0 3.0 0.00 1.32 0.01 97 1016.1
20260510114802 64 155 2.0 3.0 0.00 1.32 0.01 97 1016.0
20260510114702 64 192 1.0 3.0 0.00 1.32 0.01 97 1016.0
20260510114603 64 176 1.0 3.0 0.00 1.32 0.01 97 1016.0
20260510114505 64 165 2.0 3.0 0.00 1.32 0.01 97 1016.0
20260510114302 64 153 0.0 2.0 0.00 1.32 0.01 97 1015.9
20260510114203 64 194 0.0 2.0 0.00 1.32 0.01 97 1015.9
20260510114006 64 209 2.0 2.0 0.00 1.32 0.01 97 1015.9
20260510113902 64 191 1.0 2.0 0.00 1.32 0.01 97 1015.8
20260510113802 64 225 0.0 2.0 0.00 1.32 0.01 97 1015.9
20260510113702 64 215 0.0 2.0 0.00 1.32 0.01 97 1015.8
20260510113602 64 212 0.0 2.0 0.00 1.32 0.01 97 1015.8
20260510113505 64 160 0.0 2.0 0.00 1.32 0.01 97 1015.8
20260510113402 64 150 1.0 3.0 0.00 1.32 0.01 97 1015.8
20260510113303 64 218 0.0 3.0 0.00 1.32 0.01 97 1015.8
20260510113104 64 218 0.0 3.0 0.00 1.32 0.01 97 1015.8
20260510113006 64 218 0.0 3.0 0.00 1.32 0.01 97 1015.9
20260510112901 64 205 0.0 3.0 0.00 1.32 0.01 97 1015.9
20260510112803 64 220 0.0 3.0 0.00 1.32 0.01 97 1015.8
20260510112702 64 203 1.0 3.0 0.00 1.32 0.01 97 1015.8
20260510112505 64 215 1.0 2.0 0.00 1.32 0.01 97 1015.8
20260510112402 64 213 1.0 2.0 0.00 1.32 0.01 97 1015.8
20260510112201 64 203 0.0 4.0 0.00 1.32 0.01 97 1015.6
20260510112102 64 195 2.0 4.0 0.00 1.32 0.01 97 1015.7
20260510111802 64 224 0.0 4.0 0.00 1.32 0.01 97 1015.5
20260510111702 64 226 1.0 4.0 0.00 1.32 0.01 97 1015.4
20260510111603 64 221 0.0 4.0 0.00 1.32 0.01 97 1015.4
20260510111506 64 221 0.0 4.0 0.00 1.32 0.01 97 1015.4
20260510111402 64 169 2.0 4.0 0.00 1.32 0.01 97 1015.3
20260510111302 64 148 2.0 4.0 0.00 1.32 0.01 97 1015.2
20260510111202 64 139 3.0 4.0 0.00 1.32 0.01 97 1015.2
20260510111101 64 139 2.0 4.0 0.00 1.32 0.01 97 1015.3
20260510111005 64 164 0.0 4.0 0.00 1.32 0.01 97 1015.3
20260510110802 64 162 2.0 4.0 0.00 1.32 0.01 97 1015.1
20260510110702 64 199 0.0 3.0 0.00 1.32 0.01 97 1015.1
20260510110602 64 188 1.0 3.0 0.00 1.32 0.01 97 1015.1
20260510110505 64 134 0.0 3.0 0.00 1.32 0.01 97 1015.1
20260510110402 64 134 0.0 3.0 0.00 1.32 0.01 97 1015.0
20260510110302 64 134 0.0 3.0 0.00 1.32 0.01 97 1015.0
20260510110202 64 134 0.0 3.0 0.00 1.32 0.01 97 1014.9
20260510110005 64 134 0.0 3.0 0.00 1.32 0.01 97 1015.0
20260510105801 64 201 2.0 4.0 0.00 1.32 0.01 97 1014.9
20260510105701 64 181 0.0 4.0 0.00 1.32 0.01 97 1014.8
20260510105601 64 162 0.0 4.0 0.00 1.32 0.01 97 1014.8
20260510105401 64 186 0.0 4.0 0.00 1.32 0.01 97 1014.8
20260510105301 64 197 3.0 4.0 0.00 1.32 0.01 97 1014.7
20260510105101 64 173 0.0 4.0 0.00 1.32 0.01 97 1014.7
20260510105006 64 187 0.0 4.0 0.00 1.32 0.01 97 1014.7
20260510104801 64 205 2.0 3.0 0.00 1.32 0.01 97 1014.6
20260510104704 64 193 3.0 3.0 0.00 1.32 0.01 97 1014.6
20260510104601 64 230 0.0 3.0 0.00 1.32 0.01 97 1014.7
20260510104400 64 230 0.0 3.0 0.00 1.32 0.01 97 1014.7
20260510104301 64 230 0.0 3.0 0.00 1.32 0.01 97 1014.6
20260510104204 64 230 0.0 3.0 0.00 1.32 0.01 97 1014.6
20260510104005 64 153 0.0 5.0 0.00 1.32 0.01 97 1014.6
20260510103902 64 157 0.0 5.0 0.00 1.32 0.01 97 1014.6
20260510103801 64 180 0.0 5.0 0.00 1.32 0.01 97 1014.6
20260510103701 64 190 0.0 5.0 0.00 1.32 0.01 97 1014.5
20260510103504 64 131 0.0 5.0 0.00 1.32 0.01 97 1014.5
20260510103400 64 127 0.0 5.0 0.00 1.32 0.01 97 1014.5
20260510103302 64 150 4.0 5.0 0.00 1.32 0.01 97 1014.4
20260510103201 64 129 0.0 3.0 0.00 1.32 0.01 97 1014.5
20260510103006 64 106 0.0 3.0 0.00 1.32 0.01 97 1014.4
20260510102900 64 132 3.0 3.0 0.00 1.32 0.01 97 1014.4
20260510102800 64 165 2.0 3.0 0.00 1.32 0.01 97 1014.5
20260510102701 64 122 0.0 3.0 0.00 1.32 0.01 97 1014.4
20260510102602 64 136 0.0 3.0 0.00 1.32 0.01 97 1014.5
20260510102504 64 136 0.0 4.0 0.00 1.32 0.01 97 1014.4
20260510102401 64 146 2.0 4.0 0.00 1.32 0.01 97 1014.4
20260510102301 64 165 0.0 5.0 0.00 1.32 0.01 97 1014.4
20260510102201 64 107 2.0 5.0 0.00 1.32 0.01 97 1014.4
20260510102102 64 139 0.0 5.0 0.00 1.32 0.01 97 1014.4
20260510101800 64 143 0.0 5.0 0.00 1.32 0.01 97 1014.3
20260510101702 64 155 3.0 5.0 0.00 1.32 0.01 97 1014.2
20260510101601 64 151 0.0 5.0 0.00 1.32 0.01 97 1014.3
20260510101505 64 141 0.0 5.0 0.00 1.32 0.01 97 1014.3
20260510101401 64 136 3.0 5.0 0.00 1.32 0.01 97 1014.2
20260510101302 64 257 0.0 3.0 0.00 1.32 0.01 97 1014.2
20260510101201 64 160 1.0 3.0 0.00 1.32 0.01 97 1014.2
20260510101101 64 197 0.0 3.0 0.00 1.32 0.01 97 1014.2
20260510101006 64 62 0.0 3.0 0.00 1.32 0.01 97 1014.2
20260510100901 64 150 1.0 2.0 0.00 1.32 0.01 97 1014.2
20260510100801 64 58 0.0 1.0 0.00 1.32 0.01 97 1014.1
20260510100701 64 58 0.0 1.0 0.00 1.32 0.01 97 1014.2
20260510100505 64 316 0.0 1.0 0.00 1.32 0.01 97 1014.0
20260510100301 64 316 0.0 1.0 0.00 1.32 0.01 97 1014.1
20260510100200 64 316 0.0 1.0 0.00 1.32 0.01 97 1014.2
20260510100101 64 316 0.0 1.0 0.00 1.32 0.01 97 1014.2
20260510100006 64 150 0.0 1.0 0.00 1.32 0.01 97 1014.2
20260510095802 64 150 0.0 1.0 0.00 1.32 0.01 97 1014.2
20260510095701 64 150 0.0 1.0 0.00 1.32 0.01 97 1014.2
20260510095505 64 160 0.0 0.0 0.00 1.32 0.01 97 1014.2
20260510095400 64 160 0.0 1.0 0.00 1.32 0.01 97 1014.1
20260510095301 64 160 0.0 1.0 0.00 1.32 0.01 97 1014.0
20260510095201 64 160 0.0 1.0 0.00 1.32 0.01 97 1014.1
20260510095101 64 160 0.0 2.0 0.00 1.32 0.01 97 1014.1
20260510095006 64 160 0.0 2.0 0.00 1.32 0.01 97 1014.1
20260510094900 64 346 0.0 2.0 0.00 1.32 0.01 97 1014.0
20260510094701 64 346 0.0 2.0 0.00 1.32 0.01 97 1014.1
20260510094601 64 346 0.0 2.0 0.00 1.32 0.01 97 1014.1
20260510094506 64 132 0.0 2.0 0.00 1.32 0.01 97 1014.1
20260510094400 64 132 0.0 2.0 0.00 1.32 0.01 97 1014.0
20260510094300 64 62 0.0 2.0 0.00 1.32 0.01 97 1014.0
20260510094201 64 150 0.0 2.0 0.00 1.32 0.01 97 1014.1
20260510094101 64 150 0.0 2.0 0.00 1.32 0.01 97 1014.1
20260510093901 64 150 0.0 2.0 0.00 1.32 0.01 97 1014.1
20260510093601 64 150 0.0 2.0 0.00 1.32 0.01 97 1014.2
20260510093400 64 174 0.0 2.0 0.00 1.32 0.01 97 1014.2
20260510093301 64 151 2.0 2.0 0.00 1.32 0.01 97 1014.2
20260510093201 64 209 0.0 0.0 0.00 1.32 0.01 97 1014.2
20260510093101 64 209 0.0 0.0 0.00 1.32 0.01 97 1014.2
20260510093006 64 209 0.0 0.0 0.00 1.32 0.01 97 1014.2
20260510092901 64 218 0.0 0.0 0.00 1.32 0.01 97 1014.2
20260510092801 64 218 0.0 0.0 0.00 1.32 0.01 97 1014.1
20260510092700 64 218 0.0 0.0 0.00 1.32 0.01 97 1014.2
20260510092506 64 218 0.0 2.0 0.00 1.32 0.01 97 1014.1
20260510092401 64 218 0.0 2.0 0.00 1.32 0.01 97 1014.1
20260510092300 64 218 0.0 2.0 0.00 1.32 0.01 97 1014.1
20260510092201 64 218 0.0 2.0 0.00 1.32 0.01 97 1014.0
20260510092102 64 218 0.0 2.0 0.00 1.32 0.01 97 1014.0
20260510092005 64 218 0.0 2.0 0.00 1.32 0.01 97 1014.0
20260510091900 64 218 0.0 2.0 0.00 1.32 0.01 97 1014.0
20260510091801 64 218 0.0 2.0 0.00 1.32 0.01 97 1014.0
20260510091601 64 172 0.0 2.0 0.00 1.32 0.01 97 1014.0
20260510091505 64 141 2.0 2.0 0.00 1.32 0.01 97 1014.2
20260510091401 64 202 0.0 2.0 0.00 1.32 0.01 97 1014.1
20260510091301 64 217 0.0 2.0 0.00 1.32 0.01 97 1014.2
20260510091201 64 214 0.0 2.0 0.00 1.32 0.01 97 1014.1
20260510091101 64 222 1.0 1.0 0.00 1.32 0.01 97 1014.2
20260510091006 64 207 0.0 1.0 0.00 1.32 0.01 97 1014.2
20260510090901 64 207 0.0 1.0 0.00 1.32 0.01 97 1014.0
20260510090801 64 241 0.0 1.0 0.00 1.32 0.01 97 1014.0
20260510090701 64 241 0.0 1.0 0.00 1.32 0.01 97 1013.9
20260510090601 64 224 0.0 0.0 0.00 1.32 0.01 97 1014.0
20260510090505 64 224 0.0 0.0 0.00 1.32 0.01 97 1014.0
20260510090401 64 224 0.0 0.0 0.00 1.32 0.01 97 1014.0
20260510090201 64 224 0.0 0.0 0.00 1.32 0.01 97 1014.0
20260510090101 64 224 0.0 2.0 0.00 1.32 0.01 97 1014.0
20260510090008 64 224 0.0 2.0 0.00 1.32 0.01 97 1014.0
20260510085903 64 224 0.0 2.0 0.00 1.32 0.01 97 1014.2
20260510085803 64 224 0.0 2.0 0.00 1.32 0.01 97 1014.2
20260510085703 64 224 0.0 2.0 0.00 1.32 0.01 97 1014.1
20260510085602 64 224 0.0 2.0 0.00 1.32 0.01 97 1014.1
20260510085402 64 224 0.0 2.0 0.00 1.32 0.01 97 1014.0
20260510085306 64 222 0.0 2.0 0.00 1.32 0.01 97 1014.0
20260510085202 64 201 0.0 0.0 0.00 1.32 0.01 97 1014.0
20260510085102 64 201 0.0 0.0 0.00 1.32 0.01 97 1013.9
20260510085006 64 201 0.0 0.0 0.00 1.32 0.01 97 1013.9
20260510084802 64 201 0.0 0.0 0.00 1.32 0.01 97 1013.8
20260510084701 64 201 0.0 0.0 0.00 1.32 0.01 97 1013.8
20260510084602 64 201 0.0 0.0 0.00 1.32 0.01 97 1013.8
20260510084506 64 201 0.0 0.0 0.00 1.32 0.01 97 1013.8
20260510084401 64 201 0.0 0.0 0.00 1.32 0.01 97 1013.8
20260510084202 64 201 0.0 0.0 0.00 1.32 0.01 97 1013.7
20260510084102 64 201 0.0 0.0 0.00 1.32 0.01 97 1013.8
20260510084006 64 201 0.0 0.0 0.00 1.32 0.01 97 1013.8
20260510083902 64 208 0.0 0.0 0.00 1.32 0.01 97 1013.8
20260510083803 64 208 0.0 0.0 0.00 1.32 0.01 97 1013.8
20260510083703 64 208 0.0 0.0 0.00 1.32 0.01 97 1013.8
20260510083505 64 208 0.0 0.0 0.00 1.32 0.01 97 1013.8
20260510083402 64 208 0.0 0.0 0.00 1.32 0.01 97 1013.8
20260510083303 64 208 0.0 0.0 0.00 1.32 0.01 97 1013.7
20260510083202 64 208 0.0 0.0 0.00 1.32 0.01 97 1013.7
20260510082903 64 207 0.0 0.0 0.00 1.32 0.01 97 1013.6
20260510082802 64 208 0.0 0.0 0.00 1.32 0.01 97 1013.6
20260510082702 64 208 0.0 0.0 0.00 1.32 0.01 97 1013.6
20260510082601 64 208 0.0 0.0 0.00 1.32 0.01 97 1013.7
20260510082505 64 208 0.0 0.0 0.00 1.32 0.01 97 1013.7
20260510082403 64 208 0.0 0.0 0.00 1.32 0.01 97 1013.7
20260510082302 64 208 0.0 0.0 0.00 1.32 0.01 97 1013.7
20260510082203 64 208 0.0 0.0 0.00 1.32 0.01 97 1013.6
20260510082102 64 208 0.0 0.0 0.00 1.32 0.01 97 1013.7
20260510082005 64 208 0.0 0.0 0.00 1.32 0.01 97 1013.7
20260510081901 64 208 0.0 0.0 0.00 1.32 0.01 97 1013.6
20260510081805 64 208 0.0 0.0 0.00 1.32 0.01 97 1013.6
20260510081702 64 208 0.0 0.0 0.00 1.32 0.01 97 1013.6
20260510081602 64 208 0.0 1.0 0.00 1.32 0.01 97 1013.7
20260510081505 64 208 0.0 1.0 0.00 1.32 0.01 97 1013.7
20260510081402 64 208 0.0 1.0 0.00 1.32 0.01 97 1013.7
20260510081301 64 208 0.0 1.0 0.00 1.32 0.01 97 1013.7
20260510081202 64 208 0.0 1.0 0.00 1.32 0.01 97 1013.6
20260510081103 64 208 0.0 1.0 0.00 1.32 0.01 97 1013.7
20260510081006 64 208 0.0 2.0 0.00 1.32 0.01 97 1013.7
20260510080902 64 200 0.0 2.0 0.00 1.32 0.01 97 1013.7
20260510080802 64 95 0.0 2.0 0.00 1.32 0.01 97 1013.7
20260510080703 64 289 0.0 2.0 0.00 1.32 0.01 97 1013.7
20260510080602 64 290 0.0 2.0 0.00 1.32 0.01 97 1013.6
20260510080505 64 288 0.0 2.0 0.00 1.32 0.01 97 1013.6
20260510080402 64 288 0.0 2.0 0.00 1.32 0.01 97 1013.6
20260510080302 64 288 0.0 2.0 0.00 1.32 0.01 97 1013.6
20260510080201 64 288 0.0 2.0 0.00 1.32 0.01 97 1013.6
20260510080004 64 244 0.0 2.0 0.00 1.32 0.01 97 1013.6
20260510075901 64 218 0.0 1.0 0.00 1.32 0.01 97 1013.5
20260510075802 64 224 0.0 2.0 0.00 1.32 0.01 97 1013.5
20260510075701 64 236 0.0 2.0 0.00 1.32 0.01 97 1013.4
20260510075505 64 255 0.0 2.0 0.00 1.32 0.01 97 1013.4
20260510075401 64 223 0.0 2.0 0.00 1.32 0.01 97 1013.4
20260510075300 64 223 0.0 2.0 0.00 1.32 0.01 97 1013.3
20260510075201 64 223 0.0 2.0 0.00 1.32 0.01 97 1013.3
20260510075102 64 223 0.0 2.0 0.00 1.32 0.01 97 1013.4
20260510074901 64 224 0.0 2.0 0.00 1.32 0.01 97 1013.4
20260510074803 64 221 2.0 2.0 0.00 1.32 0.01 97 1013.5
20260510074701 64 220 2.0 2.0 0.00 1.32 0.01 97 1013.3
20260510074601 64 205 1.0 2.0 0.00 1.32 0.01 97 1013.3
20260510074505 64 195 0.0 2.0 0.00 1.32 0.01 97 1013.3
20260510074402 64 165 0.0 2.0 0.00 1.32 0.01 97 1013.2
20260510074301 64 172 0.0 2.0 0.00 1.32 0.01 97 1013.2
20260510074201 64 219 0.0 2.0 0.00 1.32 0.01 97 1013.2
20260510074005 64 255 0.0 2.0 0.00 1.32 0.01 97 1013.2
20260510073901 64 255 0.0 2.0 0.00 1.32 0.01 97 1013.2
20260510073701 65 265 0.0 2.0 0.00 1.32 0.01 97 1013.1
20260510073601 65 237 0.0 2.0 0.00 1.32 0.01 97 1013.0
20260510073505 65 239 0.0 2.0 0.00 1.32 0.01 97 1013.0
20260510073401 65 202 0.0 2.0 0.00 1.32 0.01 97 1013.1
20260510073202 65 198 0.0 1.0 0.00 1.32 0.01 97 1013.0
20260510073101 65 195 0.0 1.0 0.00 1.32 0.01 97 1013.0
20260510073007 64 204 0.0 1.0 0.00 1.32 0.01 97 1013.0
20260510072801 64 186 0.0 2.0 0.00 1.32 0.01 97 1012.9
20260510072701 64 186 0.0 2.0 0.00 1.32 0.01 97 1012.8
20260510072601 65 187 0.0 3.0 0.00 1.32 0.01 97 1012.8
20260510072504 65 195 0.0 3.0 0.00 1.32 0.01 97 1012.8
20260510072401 65 209 0.0 3.0 0.00 1.32 0.01 97 1012.8
20260510072305 65 223 0.0 3.0 0.00 1.32 0.01 97 1012.8
20260510072201 64 222 0.0 3.0 0.00 1.32 0.01 97 1012.8
20260510072101 64 210 0.0 3.0 0.00 1.32 0.01 97 1012.9
20260510072006 64 207 1.0 3.0 0.00 1.32 0.01 97 1012.9
20260510071902 64 153 0.0 3.0 0.00 1.32 0.01 97 1012.8
20260510071701 64 162 3.0 3.0 0.00 1.32 0.01 97 1012.8
20260510071401 64 206 0.0 3.0 0.00 1.32 0.01 97 1012.8
20260510071201 64 225 2.0 3.0 0.00 1.32 0.01 97 1012.8
20260510071101 64 200 2.0 4.0 0.00 1.32 0.01 97 1012.7
20260510071005 64 192 1.0 4.0 0.00 1.32 0.01 97 1012.7
20260510070900 64 205 2.0 4.0 0.00 1.32 0.01 97 1012.6
20260510070800 64 165 2.0 4.0 0.00 1.32 0.01 97 1012.6
20260510070701 64 178 3.0 4.0 0.00 1.32 0.01 97 1012.5
20260510070600 64 160 2.0 4.0 0.00 1.32 0.01 97 1012.5
20260510070401 64 169 3.0 4.0 0.00 1.32 0.01 97 1012.4
20260510070300 64 181 3.0 4.0 0.00 1.32 0.01 97 1012.5
20260510070201 64 185 3.0 4.0 0.00 1.32 0.01 97 1012.5
20260510070008 64 178 3.0 4.0 0.00 1.32 0.01 97 1012.6
20260510065901 64 160 4.0 4.0 0.00 1.32 0.01 97 1012.6
20260510065801 64 174 3.0 4.0 0.00 1.32 0.01 97 1012.7
20260510065602 64 174 3.0 4.0 0.00 1.32 0.01 97 1012.6
20260510065505 64 146 2.0 4.0 0.00 1.32 0.01 97 1012.6
20260510065102 64 151 0.0 1.0 0.00 1.32 0.01 97 1012.8
20260510065005 64 204 0.0 1.0 0.00 1.32 0.01 97 1012.8
20260510064902 64 204 0.0 1.0 0.00 1.32 0.01 97 1012.9
20260510064702 65 204 0.0 1.0 0.00 1.32 0.01 97 1012.9
20260510064601 65 228 0.0 1.0 0.00 1.32 0.01 97 1012.9
20260510064506 64 233 1.0 1.0 0.00 1.32 0.01 97 1012.9
20260510064303 64 240 0.0 1.0 0.00 1.32 0.01 97 1012.8
20260510064202 64 258 0.0 1.0 0.00 1.32 0.01 97 1012.7
20260510064103 64 210 0.0 1.0 0.00 1.32 0.01 97 1012.7
20260510064006 65 210 0.0 1.0 0.00 1.32 0.01 97 1012.7
20260510063901 65 210 0.0 1.0 0.00 1.32 0.01 97 1012.7
20260510063803 65 210 0.0 1.0 0.00 1.32 0.01 97 1012.7
20260510063701 65 223 0.0 1.0 0.00 1.32 0.01 97 1012.7
20260510063603 65 223 0.0 1.0 0.00 1.32 0.01 97 1012.7
20260510063504 65 223 0.0 2.0 0.00 1.32 0.01 97 1012.7
20260510063402 65 223 0.0 3.0 0.00 1.32 0.01 97 1012.6
20260510063302 65 223 0.0 3.0 0.00 1.32 0.01 97 1012.7
20260510063202 65 223 0.0 3.0 0.00 1.32 0.01 97 1012.6
20260510063102 65 223 0.0 3.0 0.00 1.32 0.01 97 1012.6
20260510063006 65 146 0.0 3.0 0.00 1.32 0.01 96 1012.6
20260510062902 65 146 0.0 3.0 0.00 1.32 0.01 97 1012.6
20260510062801 65 146 0.0 3.0 0.00 1.32 0.01 96 1012.7
20260510062703 65 143 1.0 3.0 0.00 1.32 0.01 96 1012.8
20260510062601 65 165 1.0 3.0 0.00 1.32 0.01 97 1012.8
20260510062506 65 176 0.0 3.0 0.00 1.32 0.01 97 1012.8
20260510062401 65 132 0.0 1.0 0.00 1.32 0.01 97 1012.9
20260510062306 65 132 0.0 1.0 0.00 1.32 0.01 97 1012.9
20260510062202 65 132 0.0 1.0 0.00 1.32 0.01 97 1012.9
20260510062103 65 132 0.0 1.0 0.00 1.32 0.01 97 1012.9
20260510062006 65 132 0.0 1.0 0.00 1.32 0.01 97 1012.9
20260510061903 65 132 0.0 1.0 0.00 1.32 0.01 97 1012.9
20260510061802 65 132 0.0 1.0 0.00 1.32 0.01 96 1012.8
20260510061702 65 132 0.0 1.0 0.00 1.32 0.01 97 1013.0
20260510061603 65 132 0.0 1.0 0.00 1.32 0.01 97 1013.0
20260510061506 65 135 1.0 1.0 0.00 1.32 0.01 97 1012.9
20260510061302 65 143 0.0 1.0 0.00 1.32 0.01 97 1012.9
20260510061201 65 164 0.0 0.0 0.00 1.32 0.01 97 1013.0
20260510061006 65 188 0.0 0.0 0.00 1.32 0.01 97 1013.0
20260510060902 65 188 0.0 0.0 0.01 1.32 0.01 97 1013.0
20260510060801 65 188 0.0 0.0 0.01 1.32 0.01 97 1013.1
20260510060603 65 146 0.0 2.0 0.01 1.32 0.01 97 1013.1
20260510060505 65 146 0.0 2.0 0.01 1.32 0.01 97 1013.2
20260510060402 65 146 0.0 2.0 0.01 1.32 0.01 97 1013.3
20260510060302 65 146 0.0 3.0 0.01 1.32 0.01 97 1013.3
20260510060203 65 146 0.0 3.0 0.01 1.32 0.01 97 1013.3
20260510060007 65 146 0.0 3.0 0.01 1.32 0.01 97 1013.4
20260510055903 65 146 0.0 3.0 0.01 1.32 0.01 97 1013.4
20260510055803 65 150 1.0 3.0 0.01 1.32 0.01 97 1013.3
20260510055703 65 155 0.0 3.0 0.01 1.32 0.01 97 1013.4
20260510055604 65 164 0.0 3.0 0.01 1.32 0.01 97 1013.4
20260510055505 65 153 2.0 3.0 0.01 1.32 0.01 97 1013.4
20260510055403 65 146 1.0 3.0 0.01 1.32 0.01 97 1013.5
20260510055306 65 162 3.0 3.0 0.01 1.32 0.01 97 1013.5
20260510055203 65 130 0.0 3.0 0.01 1.32 0.01 97 1013.5
20260510055103 65 181 0.0 3.0 0.01 1.32 0.01 96 1013.5
20260510055005 65 181 0.0 3.0 0.01 1.32 0.01 96 1013.5
20260510054903 65 207 0.0 3.0 0.01 1.32 0.01 97 1013.5
20260510054802 65 207 1.0 3.0 0.01 1.32 0.01 97 1013.5
20260510054703 65 213 0.0 3.0 0.01 1.32 0.01 96 1013.5
20260510054603 65 213 0.0 3.0 0.01 1.32 0.01 96 1013.5
20260510054506 65 205 1.0 3.0 0.01 1.32 0.01 96 1013.5
20260510054303 65 187 2.0 3.0 0.01 1.32 0.01 96 1013.5
20260510054203 65 181 2.0 3.0 0.01 1.32 0.01 96 1013.5
20260510054103 65 193 2.0 3.0 0.01 1.32 0.01 96 1013.4
20260510054006 65 167 2.0 3.0 0.01 1.32 0.01 96 1013.4
20260510053903 65 157 2.0 2.0 0.01 1.32 0.01 96 1013.5
20260510053803 65 160 1.0 2.0 0.01 1.32 0.01 96 1013.5
20260510053702 65 139 1.0 2.0 0.01 1.32 0.01 96 1013.5
20260510053603 65 155 2.0 2.0 0.01 1.32 0.01 96 1013.5
20260510053506 65 169 0.0 2.0 0.01 1.32 0.01 96 1013.4
20260510053403 65 151 0.0 0.0 0.01 1.32 0.01 96 1013.5
20260510053303 65 117 0.0 0.0 0.01 1.32 0.01 96 1013.5
20260510053203 65 117 0.0 0.0 0.01 1.32 0.01 96 1013.6
20260510053103 65 117 0.0 0.0 0.01 1.32 0.01 96 1013.6
20260510053006 65 117 0.0 0.0 0.01 1.32 0.01 96 1013.6
20260510052904 65 295 0.0 2.0 0.01 1.32 0.01 96 1013.6
20260510052803 65 295 0.0 2.0 0.01 1.32 0.01 96 1013.6
20260510052704 65 295 0.0 2.0 0.01 1.32 0.01 96 1013.7
20260510052603 65 295 0.0 2.0 0.01 1.32 0.01 96 1013.7
20260510052506 65 295 0.0 2.0 0.01 1.32 0.01 96 1013.7
20260510052403 65 153 0.0 2.0 0.01 1.32 0.01 96 1013.7
20260510052202 65 153 0.0 2.0 0.01 1.32 0.01 96 1013.7
20260510052007 65 139 1.0 2.0 0.01 1.32 0.01 96 1013.8
20260510051903 65 136 2.0 2.0 0.01 1.32 0.01 96 1013.9
20260510051703 65 139 0.0 2.0 0.01 1.32 0.01 96 1013.9
20260510051603 65 139 0.0 2.0 0.01 1.32 0.01 97 1013.9
20260510051507 65 139 0.0 2.0 0.01 1.32 0.01 97 1014.0
20260510051403 65 139 0.0 2.0 0.01 1.32 0.01 97 1014.0
20260510051303 65 139 0.0 2.0 0.01 1.32 0.01 97 1014.0
20260510051104 65 139 0.0 2.0 0.01 1.32 0.01 97 1014.0
20260510051006 65 110 0.0 2.0 0.01 1.32 0.01 97 1014.1
20260510050804 65 131 0.0 2.0 0.00 1.31 0.00 97 1014.0
20260510050703 65 131 0.0 2.0 0.00 1.31 0.00 97 1014.1
20260510050604 65 144 0.0 2.0 0.00 1.31 0.00 97 1014.1
20260510050507 65 129 2.0 2.0 0.00 1.31 0.00 97 1014.3
20260510050403 65 158 0.0 2.0 0.00 1.31 0.00 97 1014.3
20260510050303 65 137 0.0 2.0 0.00 1.31 0.00 97 1014.3
20260510050012 65 146 0.0 2.0 0.00 1.31 0.00 97 1014.2
20260510045805 65 146 0.0 2.0 0.00 1.31 1.31 97 1014.3
20260510045705 66 146 0.0 2.0 0.00 1.31 1.31 97 1014.2
20260510045604 65 191 1.0 2.0 0.00 1.31 1.31 97 1014.2
20260510045505 66 209 0.0 2.0 0.00 1.31 1.31 97 1014.2
20260510045405 65 217 2.0 2.0 0.00 1.31 1.31 97 1014.2
20260510045306 66 208 0.0 2.0 0.00 1.31 1.31 97 1014.1
20260510045203 65 231 0.0 2.0 0.00 1.31 1.31 97 1014.1
20260510045104 66 216 0.0 2.0 0.00 1.31 1.31 97 1014.1
20260510045006 66 234 0.0 2.0 0.00 1.31 1.31 97 1014.1
20260510044804 66 203 0.0 2.0 0.00 1.31 1.31 97 1014.1
20260510044704 65 162 0.0 2.0 0.00 1.31 1.31 97 1014.0
20260510044604 65 162 0.0 2.0 0.00 1.31 1.31 97 1014.0
20260510044507 65 238 0.0 2.0 0.00 1.31 1.31 97 1014.0
20260510044405 65 226 2.0 2.0 0.00 1.31 1.31 97 1013.9
20260510044204 65 207 0.0 3.0 0.00 1.31 1.31 97 1013.8
20260510044104 65 235 0.0 3.0 0.00 1.31 1.31 97 1013.7
20260510044008 65 244 0.0 3.0 0.00 1.31 1.31 97 1013.7
20260510043703 65 225 0.0 3.0 0.00 1.31 1.31 97 1013.5
20260510043604 65 225 0.0 3.0 0.00 1.31 1.31 97 1013.4
20260510043506 65 230 2.0 3.0 0.00 1.31 1.31 97 1013.5
20260510043404 65 228 3.0 3.0 0.00 1.31 1.31 97 1013.2
20260510043304 65 232 1.0 3.0 0.00 1.31 1.31 97 1013.1
20260510043104 65 227 3.0 3.0 0.00 1.31 1.31 97 1012.8
20260510043008 65 223 2.0 2.0 0.00 1.31 1.31 97 1012.8
20260510042904 65 260 0.0 2.0 0.00 1.31 1.31 97 1012.4
20260510042803 65 223 0.0 2.0 0.00 1.31 1.31 96 1012.4
20260510042704 65 242 0.0 2.0 0.00 1.31 1.31 97 1012.3
20260510042604 65 249 0.0 2.0 0.00 1.31 1.31 97 1012.2
20260510042506 65 241 0.0 1.0 0.00 1.31 1.31 97 1012.2
20260510042403 65 242 0.0 1.0 0.00 1.31 1.31 96 1012.2
20260510042306 65 229 0.0 1.0 0.00 1.31 1.31 97 1012.2
20260510042204 65 229 0.0 1.0 0.00 1.31 1.31 97 1012.2
20260510042105 65 229 0.0 1.0 0.00 1.31 1.31 97 1012.2
20260510041905 65 253 0.0 0.0 0.00 1.31 1.31 97 1012.2
20260510041703 65 253 0.0 0.0 0.00 1.31 1.31 96 1012.3
20260510041604 65 253 0.0 0.0 0.00 1.31 1.31 97 1012.3
20260510041507 65 253 0.0 0.0 0.00 1.31 1.31 96 1012.4
20260510041406 65 253 0.0 0.0 0.00 1.31 1.31 96 1012.4
20260510041304 65 253 0.0 0.0 0.00 1.31 1.31 96 1012.4
20260510041203 65 253 0.0 0.0 0.00 1.31 1.31 96 1012.4
20260510041104 65 253 0.0 0.0 0.00 1.31 1.31 96 1012.4
20260510041008 65 253 0.0 0.0 0.00 1.31 1.31 96 1012.4
20260510040903 65 253 0.0 0.0 0.00 1.31 1.31 96 1012.4
20260510040804 65 253 0.0 0.0 0.00 1.31 1.31 96 1012.5
20260510040705 65 253 0.0 0.0 0.00 1.31 1.31 96 1012.5
20260510040304 65 263 0.0 0.0 0.00 1.31 1.31 96 1012.7
20260510040204 65 181 0.0 0.0 0.00 1.31 1.31 96 1012.7
20260510040104 65 181 0.0 0.0 0.00 1.31 1.31 96 1012.7
20260510040008 65 181 0.0 0.0 0.00 1.31 1.31 96 1012.7
20260510035905 65 181 0.0 0.0 0.00 1.31 1.31 96 1012.8
20260510035805 65 181 0.0 0.0 0.00 1.31 1.31 96 1012.8
20260510035604 65 181 0.0 0.0 0.00 1.31 1.31 96 1013.0
20260510035505 65 181 0.0 0.0 0.00 1.31 1.31 96 1013.0
20260510035404 65 181 0.0 0.0 0.00 1.31 1.31 96 1013.1
20260510035306 65 181 0.0 0.0 0.00 1.31 1.31 96 1013.2
20260510035204 65 127 0.0 0.0 0.00 1.31 1.31 96 1013.3
20260510035105 65 127 0.0 0.0 0.00 1.31 1.31 96 1013.3
20260510035007 65 127 0.0 0.0 0.00 1.31 1.31 96 1013.3
20260510034904 65 127 0.0 3.0 0.00 1.31 1.31 96 1013.3
20260510034804 65 127 0.0 3.0 0.00 1.31 1.31 96 1013.3
20260510034705 65 127 0.0 3.0 0.00 1.31 1.31 96 1013.3
20260510034605 65 127 0.0 3.0 0.00 1.31 1.31 96 1013.3
20260510034506 65 139 0.0 3.0 0.00 1.31 1.31 96 1013.3
20260510034404 65 139 0.0 3.0 0.00 1.31 1.31 96 1013.3
20260510034204 65 139 0.0 3.0 0.00 1.31 1.31 96 1013.4
20260510034104 65 139 0.0 3.0 0.00 1.31 1.31 96 1013.5
20260510034006 65 179 0.0 3.0 0.00 1.31 1.31 96 1013.5
20260510033905 65 127 2.0 3.0 0.00 1.31 1.31 96 1013.5
20260510033804 65 165 0.0 3.0 0.00 1.31 1.31 96 1013.6
20260510033506 65 167 2.0 3.0 0.00 1.31 1.31 96 1013.8
20260510033404 65 162 0.0 2.0 0.00 1.31 1.31 96 1013.8
20260510033204 65 162 2.0 4.0 0.00 1.31 1.31 96 1013.8
20260510033104 65 197 2.0 4.0 0.00 1.31 1.31 96 1013.8
20260510033007 65 201 0.0 4.0 0.00 1.31 1.31 96 1013.8
20260510032903 65 197 0.0 4.0 0.00 1.31 1.31 96 1013.8
20260510032804 65 144 0.0 4.0 0.00 1.31 1.31 96 1013.7
20260510032703 65 144 0.0 4.0 0.00 1.31 1.31 96 1013.7
20260510032604 65 167 0.0 4.0 0.00 1.31 1.31 96 1013.7
20260510032507 65 169 2.0 4.0 0.00 1.31 1.31 96 1013.7
20260510032405 66 139 2.0 4.0 0.00 1.31 1.31 96 1013.8
20260510032306 66 148 3.0 4.0 0.00 1.31 1.31 96 1013.8
20260510032205 66 174 2.0 3.0 0.00 1.31 1.31 96 1013.9
20260510032103 66 174 3.0 3.0 0.00 1.31 1.31 96 1014.0
20260510032008 66 197 2.0 3.0 0.00 1.31 1.31 96 1014.0
20260510031905 66 209 0.0 3.0 0.00 1.31 1.31 96 1014.0
20260510031804 66 188 3.0 3.0 0.00 1.31 1.31 96 1014.1
20260510031704 65 169 2.0 2.0 0.00 1.31 1.31 96 1014.1
20260510031604 66 172 0.0 2.0 0.00 1.31 1.31 96 1014.1
20260510031506 65 200 0.0 2.0 0.00 1.31 1.31 96 1014.1
20260510031405 65 199 0.0 2.0 0.00 1.31 1.31 96 1014.1
20260510031306 65 208 2.0 2.0 0.00 1.31 1.31 96 1014.1
20260510031205 65 215 1.0 2.0 0.00 1.31 1.31 96 1014.0
20260510031103 65 224 0.0 2.0 0.00 1.31 1.31 96 1014.0
20260510031007 66 232 0.0 2.0 0.00 1.31 1.31 96 1014.0
20260510030904 66 234 1.0 2.0 0.00 1.31 1.31 96 1014.0
20260510030804 66 221 2.0 2.0 0.00 1.31 1.31 96 1014.1
20260510030703 65 224 1.0 2.0 0.00 1.31 1.31 96 1014.0
20260510030604 65 225 2.0 2.0 0.00 1.31 1.31 96 1014.0
20260510030506 65 224 1.0 2.0 0.00 1.31 1.31 96 1014.0
20260510030404 66 208 0.0 3.0 0.00 1.31 1.31 96 1014.0
20260510030305 66 208 0.0 3.0 0.00 1.31 1.31 96 1014.0
20260510030204 66 208 0.0 3.0 0.00 1.31 1.31 96 1014.0
20260510030008 66 211 0.0 3.0 0.00 1.31 1.31 96 1014.1
20260510025804 66 211 0.0 3.0 0.00 1.34 1.31 96 1014.0
20260510025704 66 202 0.0 3.0 0.00 1.34 1.31 96 1014.1
20260510025506 66 165 2.0 3.0 0.00 1.34 1.31 96 1014.0
20260510025404 66 188 0.0 3.0 0.00 1.34 1.31 96 1014.0
20260510025306 66 192 1.0 2.0 0.00 1.34 1.31 96 1014.0
20260510025204 66 190 0.0 1.0 0.00 1.34 1.31 96 1014.1
20260510025006 66 232 0.0 0.0 0.00 1.34 1.31 96 1014.1
20260510024905 66 232 0.0 0.0 0.00 1.34 1.31 96 1014.2
20260510024703 66 232 0.0 3.0 0.00 1.34 1.31 96 1014.2
20260510024605 66 232 0.0 3.0 0.00 1.34 1.31 96 1014.2
20260510024507 66 232 0.0 3.0 0.00 1.34 1.31 96 1014.3
20260510024403 66 232 0.0 3.0 0.00 1.34 1.31 96 1014.3
20260510024305 66 232 0.0 3.0 0.00 1.34 1.31 96 1014.3
20260510024205 66 232 0.0 3.0 0.00 1.34 1.31 96 1014.4
20260510024104 66 232 0.0 3.0 0.00 1.34 1.31 96 1014.4
20260510024007 66 204 0.0 3.0 0.00 1.34 1.31 96 1014.4
20260510023904 66 158 2.0 3.0 0.00 1.34 1.31 96 1014.5
20260510023805 66 194 2.0 3.0 0.00 1.34 1.31 96 1014.5
20260510023604 66 178 2.0 3.0 0.00 1.34 1.31 96 1014.6
20260510023505 66 184 0.0 2.0 0.00 1.34 1.31 96 1014.5
20260510023405 66 197 1.0 2.0 0.00 1.34 1.31 96 1014.5
20260510023303 66 174 2.0 2.0 0.00 1.34 1.31 96 1014.6
20260510023204 66 179 0.0 2.0 0.00 1.34 1.31 96 1014.6
20260510023105 66 186 0.0 0.0 0.00 1.34 1.31 96 1014.6
20260510023007 66 198 0.0 2.0 0.00 1.34 1.31 96 1014.5
20260510022904 66 181 0.0 2.0 0.00 1.34 1.31 96 1014.6
20260510022804 66 181 0.0 3.0 0.00 1.34 1.31 96 1014.6
20260510022703 66 181 0.0 3.0 0.00 1.34 1.31 96 1014.5
20260510022505 66 181 0.0 3.0 0.00 1.34 1.31 96 1014.3
20260510022404 66 181 0.0 3.0 0.00 1.34 1.31 96 1014.3
20260510022204 66 181 0.0 3.0 0.00 1.34 1.31 96 1014.3
20260510022104 66 181 0.0 3.0 0.00 1.34 1.31 96 1014.3
20260510022007 66 198 1.0 3.0 0.00 1.34 1.31 96 1014.1
20260510021805 66 184 3.0 3.0 0.00 1.34 1.31 96 1014.1
20260510021705 66 165 3.0 3.0 0.00 1.34 1.31 96 1014.2
20260510021604 66 137 2.0 3.0 0.00 1.34 1.31 96 1014.2
20260510021506 66 155 0.0 3.0 0.00 1.34 1.31 96 1014.2
20260510021403 66 165 0.0 3.0 0.00 1.34 1.31 96 1014.3
20260510021303 66 204 2.0 3.0 0.00 1.34 1.31 96 1014.2
20260510021204 66 198 2.0 2.0 0.00 1.34 1.31 96 1014.2
20260510021007 66 183 0.0 2.0 0.00 1.34 1.31 96 1014.2
20260510020904 66 213 0.0 2.0 0.00 1.34 1.31 96 1014.2
20260510020805 66 220 0.0 2.0 0.00 1.34 1.31 96 1014.2
20260510020603 66 213 0.0 2.0 0.00 1.34 1.31 96 1014.1
20260510020506 66 213 0.0 2.0 0.00 1.34 1.31 96 1014.1
20260510020405 66 213 0.0 2.0 0.00 1.34 1.31 96 1014.2
20260510020304 66 204 0.0 2.0 0.00 1.34 1.31 96 1014.2
20260510020203 66 216 0.0 2.0 0.00 1.34 1.31 96 1014.1
20260510020105 66 226 0.0 3.0 0.00 1.34 1.31 96 1014.2
20260510020008 66 246 1.0 3.0 0.00 1.35 1.31 96 1014.2
20260510015902 66 227 0.0 3.0 0.00 1.35 1.31 96 1014.1
20260510015803 66 229 0.0 3.0 0.00 1.35 1.31 96 1014.1
20260510015703 66 226 0.0 3.0 0.00 1.35 1.31 96 1014.1
20260510015604 66 226 0.0 3.0 0.00 1.35 1.31 96 1013.9
20260510015506 66 226 0.0 3.0 0.00 1.35 1.31 96 1013.9
20260510015403 66 245 0.0 3.0 0.00 1.35 1.31 96 1014.0
20260510015306 66 250 1.0 3.0 0.00 1.35 1.31 96 1013.9
20260510015202 66 270 2.0 3.0 0.00 1.35 1.31 96 1013.9
20260510015103 66 247 1.0 3.0 0.00 1.35 1.31 96 1013.8
20260510015007 66 243 0.0 2.0 0.00 1.35 1.31 96 1013.8
20260510014903 66 239 0.0 2.0 0.00 1.35 1.31 96 1013.7
20260510014802 66 238 0.0 2.0 0.00 1.35 1.31 96 1013.7
20260510014702 66 226 0.0 2.0 0.00 1.35 1.31 96 1013.6
20260510014603 66 235 0.0 2.0 0.00 1.35 1.31 96 1013.6
20260510014505 66 235 0.0 2.0 0.00 1.35 1.31 96 1013.6
20260510014203 66 231 0.0 2.0 0.00 1.35 1.31 96 1013.5
20260510014103 66 227 0.0 3.0 0.00 1.35 1.31 96 1013.5
20260510014006 66 235 0.0 3.0 0.00 1.35 1.31 96 1013.5
20260510013902 66 235 0.0 3.0 0.00 1.35 1.31 96 1013.5
20260510013802 66 225 0.0 3.0 0.00 1.35 1.31 96 1013.5
20260510013703 66 228 0.0 3.0 0.00 1.35 1.31 96 1013.4
20260510013603 66 230 0.0 3.0 0.00 1.35 1.31 96 1013.4
20260510013505 66 232 0.0 3.0 0.00 1.35 1.31 96 1013.4
20260510013303 66 251 1.0 3.0 0.00 1.35 1.31 96 1013.4
20260510013203 66 263 2.0 2.0 0.00 1.35 1.31 96 1013.4
20260510012803 66 219 0.0 2.0 0.00 1.35 1.31 96 1013.2
20260510012703 66 214 0.0 3.0 0.00 1.35 1.31 95 1013.2
20260510012603 66 193 0.0 3.0 0.00 1.35 1.31 96 1013.2
20260510012505 66 204 0.0 3.0 0.00 1.35 1.31 96 1013.2
20260510012402 66 183 0.0 3.0 0.00 1.35 1.31 96 1013.1
20260510012306 66 222 0.0 3.0 0.00 1.35 1.31 96 1013.2
20260510012203 66 226 0.0 3.0 0.00 1.35 1.31 96 1013.2
20260510012102 66 216 0.0 3.0 0.00 1.35 1.31 96 1013.2
20260510011902 66 192 0.0 3.0 0.00 1.35 1.31 96 1013.2
20260510011802 66 150 1.0 3.0 0.00 1.35 1.31 96 1013.2
20260510011603 66 209 2.0 3.0 0.00 1.35 1.31 96 1013.3
20260510011506 66 222 2.0 3.0 0.00 1.35 1.31 96 1013.3
20260510011403 66 223 2.0 3.0 0.00 1.35 1.31 96 1013.2
20260510011203 66 227 0.0 2.0 0.00 1.35 1.31 96 1013.2
20260510011103 66 225 0.0 2.0 0.00 1.35 1.31 96 1013.2
20260510011006 66 225 0.0 2.0 0.00 1.35 1.31 96 1013.2
20260510010903 66 198 1.0 2.0 0.00 1.35 1.31 96 1013.2
20260510010803 66 216 0.0 2.0 0.00 1.35 1.31 96 1013.2
20260510010704 66 190 0.0 2.0 0.00 1.35 1.31 96 1013.2
20260510010505 66 164 0.0 2.0 0.00 1.35 1.31 95 1013.2
20260510010303 66 216 0.0 2.0 0.00 1.35 1.31 95 1013.2
20260510010203 66 216 0.0 2.0 0.00 1.35 1.31 95 1013.3
20260510010009 66 219 1.0 2.0 0.00 1.35 1.31 95 1013.3
20260510005903 66 221 0.0 3.0 0.00 1.35 1.31 95 1013.3
20260510005803 66 231 0.0 3.0 0.00 1.35 1.31 95 1013.3
20260510005703 66 236 0.0 3.0 0.00 1.35 1.31 95 1013.3
20260510005603 66 236 0.0 3.0 0.00 1.35 1.31 95 1013.2
20260510005506 66 236 0.0 3.0 0.00 1.35 1.31 95 1013.2
20260510005403 66 230 0.0 3.0 0.00 1.35 1.31 95 1013.1
20260510005306 66 230 0.0 3.0 0.00 1.35 1.31 95 1013.1
20260510005104 66 234 2.0 3.0 0.00 1.35 1.31 95 1013.1
20260510005006 66 246 2.0 3.0 0.00 1.35 1.31 95 1013.1
20260510004903 66 234 1.0 2.0 0.00 1.35 1.31 95 1013.0
20260510004803 66 224 2.0 2.0 0.00 1.35 1.31 95 1012.9
20260510004603 66 237 0.0 2.0 0.00 1.35 1.31 95 1012.9
20260510004506 66 237 0.0 2.0 0.00 1.35 1.31 95 1012.9
20260510004302 66 220 0.0 2.0 0.00 1.35 1.31 95 1012.8
20260510004102 66 209 0.0 2.0 0.00 1.35 1.31 95 1012.7
20260510003903 66 208 0.0 2.0 0.00 1.35 1.31 95 1012.7
20260510003803 66 214 0.0 2.0 0.00 1.35 1.31 95 1012.7
20260510003703 66 146 0.0 2.0 0.00 1.35 1.31 95 1012.7
20260510003603 66 146 0.0 2.0 0.00 1.35 1.31 95 1012.7
20260510003506 66 197 0.0 2.0 0.00 1.35 1.31 95 1012.7
20260510003403 66 173 0.0 2.0 0.00 1.35 1.31 95 1012.7
20260510003303 66 155 0.0 2.0 0.00 1.35 1.31 95 1012.7
20260510003203 66 191 2.0 2.0 0.00 1.35 1.31 95 1012.6
20260510003103 66 205 0.0 2.0 0.00 1.35 1.31 95 1012.7
20260510003006 66 205 0.0 2.0 0.00 1.35 1.31 95 1012.6
20260510002904 66 165 0.0 2.0 0.00 1.35 1.31 95 1012.7
20260510002803 66 174 0.0 2.0 0.00 1.35 1.31 95 1012.7
20260510002703 66 146 0.0 2.0 0.00 1.35 1.31 95 1012.7
20260510002403 66 155 0.0 2.0 0.00 1.35 1.31 95 1012.5
20260510002306 66 155 0.0 2.0 0.00 1.35 1.31 95 1012.5
20260510002203 66 155 0.0 2.0 0.00 1.35 1.31 95 1012.6
20260510002005 66 144 0.0 2.0 0.00 1.35 1.31 95 1012.6
20260510001903 66 160 0.0 2.0 0.00 1.35 1.31 95 1012.6
20260510001803 66 188 0.0 2.0 0.00 1.35 1.31 95 1012.6
20260510001703 66 183 0.0 2.0 0.00 1.35 1.31 95 1012.6
20260510001603 66 153 0.0 2.0 0.00 1.35 1.31 95 1012.6
20260510001506 66 153 0.0 2.0 0.00 1.35 1.31 95 1012.6
20260510001403 66 141 0.0 2.0 0.00 1.35 1.31 95 1012.5
20260510001303 66 134 2.0 2.0 0.00 1.35 1.31 95 1012.6
20260510001203 66 143 0.0 1.0 0.00 1.35 1.31 95 1012.6
20260510001006 66 130 0.0 0.0 0.00 1.35 1.31 95 1012.7
20260510000904 66 259 0.0 0.0 0.00 1.35 1.31 95 1012.8
20260510000703 66 259 0.0 0.0 0.00 1.35 1.31 95 1012.7
20260510000602 66 259 0.0 2.0 0.00 1.35 1.31 95 1012.7
20260510000505 66 259 0.0 2.0 0.00 1.35 1.31 95 1012.8
20260510000403 66 259 0.0 2.0 0.00 1.35 1.31 95 1012.7
20260510000304 66 259 0.0 2.0 0.00 1.35 1.31 95 1012.7
20260510000204 66 259 0.0 2.0 0.00 1.35 1.31 95 1012.7
20260510000103 66 129 0.0 2.0 0.00 1.35 1.31 95 1012.6
20260510000007 66 129 0.0 2.0 0.00 1.35 1.31 95 1012.6
20260509235903 66 129 0.0 2.0 0.00 1.35 1.31 94 1012.6
20260509235803 66 129 0.0 2.0 0.00 1.35 1.31 94 1012.6
20260509235703 67 139 1.0 2.0 0.00 1.35 1.31 94 1012.6
20260509235604 66 173 0.0 0.0 0.00 1.35 1.31 94 1012.6
20260509235506 66 136 0.0 0.0 0.00 1.35 1.31 94 1012.6
20260509235403 67 136 0.0 0.0 0.00 1.35 1.31 94 1012.6
20260509235306 67 136 0.0 0.0 0.00 1.35 1.31 94 1012.6
20260509235203 67 136 0.0 0.0 0.00 1.35 1.31 94 1012.5
20260509235103 67 136 0.0 0.0 0.00 1.35 1.31 94 1012.5
20260509235006 67 136 0.0 0.0 0.00 1.35 1.31 94 1012.5
20260509234902 67 136 0.0 0.0 0.00 1.35 1.31 94 1012.5
20260509234803 66 136 0.0 0.0 0.00 1.35 1.31 94 1012.5
20260509234703 66 136 0.0 0.0 0.00 1.35 1.31 94 1012.5
20260509234505 67 136 0.0 0.0 0.00 1.35 1.31 94 1012.4
20260509234304 67 136 0.0 0.0 0.00 1.35 1.31 94 1012.5
20260509234204 67 136 0.0 0.0 0.00 1.35 1.31 94 1012.5
20260509234006 67 136 0.0 0.0 0.00 1.35 1.31 94 1012.4
20260509233903 67 136 0.0 0.0 0.00 1.35 1.31 94 1012.4
20260509233702 67 136 0.0 2.0 0.00 1.35 1.31 94 1012.4
20260509233602 67 136 0.0 3.0 0.00 1.35 1.31 94 1012.4
20260509233506 67 136 0.0 3.0 0.00 1.35 1.31 94 1012.3
20260509233402 67 136 0.0 3.0 0.00 1.35 1.31 94 1012.5
20260509233303 67 136 0.0 3.0 0.00 1.35 1.31 94 1012.4
20260509233203 67 136 0.0 3.0 0.00 1.35 1.31 94 1012.4
20260509233103 67 136 0.0 3.0 0.00 1.35 1.31 94 1012.4
20260509233006 67 136 0.0 3.0 0.00 1.35 1.31 94 1012.4
20260509232903 67 188 0.0 3.0 0.00 1.35 1.31 94 1012.4
20260509232803 67 188 0.0 3.0 0.00 1.35 1.31 93 1012.4
20260509232603 67 144 2.0 2.0 0.00 1.35 1.31 93 1012.4
20260509232506 67 160 2.0 2.0 0.00 1.35 1.31 93 1012.4
20260509232403 67 203 0.0 2.0 0.00 1.35 1.31 93 1012.5
20260509232306 67 224 2.0 2.0 0.00 1.35 1.31 93 1012.5
20260509232203 67 210 0.0 3.0 0.00 1.35 1.31 93 1012.5
20260509232103 67 225 0.0 3.0 0.00 1.35 1.31 93 1012.5
20260509232007 67 213 0.0 3.0 0.00 1.35 1.31 93 1012.5
20260509231903 67 52 0.0 3.0 0.00 1.35 1.31 93 1012.5
20260509231802 67 173 0.0 3.0 0.00 1.35 1.31 93 1012.5
20260509231702 67 173 0.0 3.0 0.00 1.35 1.31 93 1012.5
20260509231506 67 171 1.0 3.0 0.00 1.35 1.31 93 1012.5
20260509231403 67 167 2.0 3.0 0.00 1.35 1.31 93 1012.6
20260509231302 67 160 2.0 3.0 0.00 1.35 1.31 93 1012.6
20260509231204 67 151 1.0 3.0 0.00 1.35 1.31 93 1012.6
20260509231103 67 188 1.0 3.0 0.00 1.35 1.31 93 1012.6
20260509231006 67 193 1.0 3.0 0.00 1.35 1.31 93 1012.7
20260509230902 67 225 0.0 3.0 0.00 1.35 1.31 93 1012.7
20260509230803 67 223 0.0 3.0 0.00 1.35 1.31 93 1012.6
20260509230703 67 195 0.0 3.0 0.00 1.35 1.31 93 1012.6
20260509230603 67 64 0.0 3.0 0.00 1.35 1.31 93 1012.7
20260509230505 67 146 0.0 3.0 0.00 1.35 1.31 93 1012.7
20260509230402 67 195 0.0 2.0 0.00 1.35 1.31 93 1012.7
20260509230303 67 195 0.0 2.0 0.00 1.35 1.31 93 1012.7
20260509230204 67 142 0.0 2.0 0.00 1.35 1.31 93 1012.7
20260509230103 67 239 0.0 2.0 0.00 1.35 1.31 93 1012.6
20260509225903 67 239 0.0 2.0 0.00 1.35 1.31 93 1012.7
20260509225802 67 236 0.0 2.0 0.00 1.35 1.31 92 1012.6
20260509225703 67 238 0.0 2.0 0.00 1.35 1.31 92 1012.6
20260509225603 67 235 0.0 2.0 0.00 1.35 1.31 92 1012.5
20260509225506 67 242 0.0 2.0 0.00 1.35 1.31 92 1012.5
20260509225403 67 169 0.0 2.0 0.00 1.35 1.31 92 1012.5
20260509225305 67 219 0.0 2.0 0.00 1.35 1.31 92 1012.5
20260509225203 67 219 0.0 2.0 0.00 1.35 1.31 92 1012.5
20260509225103 67 219 0.0 2.0 0.00 1.35 1.31 92 1012.5
20260509224903 67 219 0.0 2.0 0.00 1.35 1.31 92 1012.4
20260509224803 68 219 0.0 3.0 0.00 1.35 1.31 92 1012.4
20260509224703 67 219 0.0 3.0 0.00 1.35 1.31 92 1012.7
20260509224603 68 165 0.0 3.0 0.00 1.35 1.31 92 1012.3
20260509224506 68 142 0.0 3.0 0.00 1.35 1.31 92 1012.3
20260509224402 68 143 0.0 3.0 0.00 1.35 1.31 92 1012.3
20260509224303 67 142 0.0 3.0 0.00 1.35 1.31 92 1012.2
20260509224104 67 143 0.0 4.0 0.00 1.35 1.31 92 1012.2
20260509223703 67 144 1.0 4.0 0.00 1.35 1.31 92 1012.2
20260509223603 68 165 2.0 4.0 0.00 1.35 1.31 92 1012.2
20260509223403 67 129 0.0 4.0 0.00 1.35 1.31 92 1012.1
20260509223303 68 89 3.0 4.0 0.00 1.35 1.31 92 1012.1
20260509223202 68 146 0.0 4.0 0.00 1.35 1.31 92 1012.2
20260509223102 68 33 0.0 4.0 0.01 1.35 1.31 92 1012.1
20260509223007 68 150 0.0 4.0 0.01 1.35 1.31 92 1012.1
20260509222902 68 150 0.0 4.0 0.01 1.35 1.31 92 1012.0
20260509222803 68 356 1.0 4.0 0.01 1.35 1.31 92 1012.0
20260509222703 68 148 0.0 4.0 0.01 1.35 1.31 92 1012.0
20260509222603 68 146 2.0 4.0 0.01 1.35 1.31 92 1012.0
20260509222506 68 134 1.0 4.0 0.01 1.35 1.31 92 1012.0
20260509222403 68 160 1.0 4.0 0.01 1.35 1.31 92 1012.0
20260509222306 68 137 0.0 4.0 0.01 1.35 1.31 92 1011.9
20260509222202 68 81 3.0 4.0 0.01 1.35 1.31 92 1011.9
20260509222103 68 153 0.0 4.0 0.01 1.35 1.31 92 1011.9
20260509222006 68 118 0.0 4.0 0.01 1.35 1.31 92 1011.9
20260509221903 68 27 0.0 4.0 0.01 1.35 1.31 92 1011.9
20260509221803 68 203 0.0 4.0 0.01 1.35 1.31 92 1011.9
20260509221702 68 70 1.0 4.0 0.01 1.35 1.31 92 1011.9
20260509221603 68 105 0.0 4.0 0.01 1.35 1.31 92 1011.9
20260509221506 68 67 0.0 4.0 0.01 1.35 1.31 92 1011.9
20260509221302 68 72 3.0 4.0 0.01 1.35 1.31 92 1011.9
20260509221202 68 108 4.0 4.0 0.01 1.35 1.31 92 1011.9
20260509221006 68 129 0.0 3.0 0.01 1.35 1.31 92 1011.8
20260509220903 68 130 0.0 3.0 0.01 1.35 1.31 92 1011.9
20260509220803 68 221 0.0 3.0 0.01 1.35 1.31 92 1011.9
20260509220704 68 107 0.0 3.0 0.01 1.35 1.31 93 1011.9
20260509220604 68 34 0.0 3.0 0.01 1.35 1.31 93 1011.9
20260509220505 68 333 0.0 3.0 0.01 1.35 1.31 93 1011.9
20260509220402 67 123 0.0 3.0 0.01 1.35 1.31 93 1011.8
20260509220302 68 115 0.0 3.0 0.01 1.35 1.31 93 1011.7
20260509220104 68 146 1.0 3.0 0.01 1.35 1.31 93 1011.8
20260509220008 68 139 0.0 3.0 0.01 1.35 1.31 93 1011.8
20260509215903 68 195 0.0 3.0 0.01 1.44 1.31 93 1011.8
20260509215803 67 160 0.0 3.0 0.01 1.44 1.31 93 1011.8
20260509215702 67 137 2.0 3.0 0.01 1.44 1.31 93 1011.8
20260509215603 67 311 0.0 3.0 0.01 1.44 1.31 93 1011.8
20260509215505 67 136 0.0 3.0 0.01 1.44 1.31 93 1011.8
20260509215403 67 32 0.0 2.0 0.01 1.44 1.31 93 1011.8
20260509215203 67 69 0.0 2.0 0.01 1.44 1.31 93 1011.9
20260509214902 67 206 0.0 1.0 0.01 1.44 1.31 93 1012.0
20260509214803 67 206 0.0 3.0 0.01 1.44 1.31 93 1012.0
20260509214603 67 146 0.0 3.0 0.01 1.44 1.31 93 1012.0
20260509214506 67 233 0.0 3.0 0.01 1.44 1.31 94 1012.0
20260509214403 67 233 0.0 4.0 0.01 1.44 1.31 94 1012.0
20260509214302 67 233 0.0 4.0 0.01 1.44 1.31 94 1011.9
20260509214204 67 233 0.0 4.0 0.01 1.44 1.31 94 1011.9
20260509214104 67 319 0.0 4.0 0.01 1.44 1.31 94 1012.0
20260509214006 67 319 0.0 4.0 0.01 1.44 1.31 94 1012.0
20260509213903 67 314 0.0 4.0 0.01 1.44 1.31 94 1011.9
20260509213804 67 302 2.0 4.0 0.01 1.44 1.31 94 1011.9
20260509213703 67 304 1.0 4.0 0.01 1.44 1.31 94 1011.9
20260509213604 67 312 2.0 4.0 0.01 1.44 1.31 94 1011.8
20260509213402 67 314 2.0 4.0 0.01 1.44 1.31 94 1011.9
20260509213303 67 342 3.0 4.0 0.01 1.44 1.31 94 1011.9
20260509213203 67 314 3.0 4.0 0.01 1.44 1.31 94 1011.8
20260509213006 67 314 2.0 3.0 0.00 1.43 1.30 94 1011.8
20260509212803 67 304 0.0 3.0 0.00 1.43 1.30 94 1011.6
20260509212602 67 319 2.0 3.0 0.00 1.43 1.30 95 1011.6
20260509212505 67 293 0.0 3.0 0.00 1.43 1.30 95 1011.6
20260509212403 67 333 1.0 3.0 0.00 1.43 1.30 95 1011.6
20260509212203 67 333 0.0 3.0 0.00 1.43 1.30 95 1011.7
20260509212006 67 255 2.0 3.0 0.00 1.43 1.30 95 1011.7
20260509211903 67 304 0.0 3.0 0.00 1.43 1.30 95 1011.7
20260509211603 67 272 0.0 3.0 0.00 1.43 1.30 95 1011.6
20260509211506 67 294 0.0 3.0 0.00 1.43 1.30 95 1011.6
20260509211404 67 295 2.0 3.0 0.00 1.43 1.30 95 1011.6
20260509211303 67 265 0.0 3.0 0.00 1.43 1.30 95 1011.5
20260509211204 67 288 1.0 3.0 0.00 1.43 1.30 95 1011.6
20260509211103 67 263 3.0 3.0 0.00 1.43 1.30 95 1011.5
20260509211007 67 302 2.0 3.0 0.00 1.43 1.30 95 1011.5
20260509210903 67 295 2.0 3.0 0.00 1.43 1.30 95 1011.5
20260509210803 67 282 0.0 4.0 0.00 1.43 1.30 95 1011.5
20260509210703 67 301 2.0 4.0 0.00 1.43 1.30 95 1011.5
20260509210203 66 307 2.0 4.0 0.00 1.43 1.30 95 1011.5
20260509210103 66 303 0.0 4.0 0.00 1.43 1.30 95 1011.4
20260509210007 66 277 0.0 4.0 0.00 1.43 1.30 95 1011.4
20260509205903 66 272 2.0 4.0 0.00 1.54 1.30 95 1011.3
20260509205802 66 291 0.0 4.0 0.00 1.54 1.30 95 1011.3
20260509205703 66 173 0.0 4.0 0.00 1.54 1.30 95 1011.4
20260509205602 67 53 0.0 4.0 0.00 1.54 1.30 95 1011.3
20260509205506 66 53 0.0 4.0 0.00 1.54 1.30 95 1011.3
20260509205404 66 254 2.0 4.0 0.00 1.54 1.30 95 1011.2
20260509205306 66 235 0.0 4.0 0.00 1.54 1.30 95 1011.1
20260509205203 66 227 0.0 4.0 0.00 1.54 1.30 95 1011.2
20260509205103 66 186 1.0 5.0 0.00 1.54 1.30 95 1011.2
20260509205007 66 141 1.0 5.0 0.00 1.54 1.30 95 1011.1
20260509204903 66 202 0.0 5.0 0.00 1.54 1.30 95 1011.1
20260509204802 66 203 0.0 5.0 0.00 1.54 1.30 95 1011.0
20260509204703 66 203 0.0 5.0 0.00 1.54 1.30 95 1011.0
20260509204603 66 247 3.0 5.0 0.00 1.54 1.30 95 1011.0
20260509204506 66 115 0.0 5.0 0.00 1.54 1.30 95 1011.0
20260509204403 66 118 3.0 5.0 0.00 1.54 1.30 95 1011.0
20260509204303 66 143 4.0 5.0 0.00 1.54 1.30 95 1011.0
20260509204103 66 164 2.0 5.0 0.00 1.54 1.30 95 1011.0
20260509204007 66 153 2.0 5.0 0.00 1.54 1.30 95 1011.0
20260509203904 66 165 2.0 5.0 0.00 1.54 1.30 95 1011.1
20260509203803 66 236 0.0 5.0 0.00 1.54 1.30 95 1011.0
20260509203703 66 176 0.0 5.0 0.00 1.54 1.30 95 1011.0
20260509203604 66 230 0.0 5.0 0.00 1.54 1.30 95 1011.0
20260509203506 66 232 0.0 4.0 0.00 1.54 1.30 95 1010.9
20260509203402 66 184 1.0 4.0 0.00 1.54 1.30 95 1010.9
20260509203304 66 158 0.0 4.0 0.00 1.54 1.30 95 1010.9
20260509203204 66 194 0.0 4.0 0.00 1.54 1.30 95 1010.8
20260509203102 66 181 1.0 4.0 0.00 1.54 1.30 96 1010.8
20260509203007 66 264 0.0 4.0 0.00 1.54 1.30 96 1010.8
20260509202904 66 213 0.0 4.0 0.00 1.54 1.30 96 1010.7
20260509202803 66 124 1.0 4.0 0.00 1.54 1.30 96 1010.7
20260509202703 66 184 2.0 4.0 0.00 1.54 1.30 96 1010.7
20260509202602 66 94 0.0 4.0 0.00 1.54 1.30 96 1010.8
20260509202505 66 210 0.0 4.0 0.00 1.54 1.30 96 1010.8
20260509202405 66 141 0.0 4.0 0.00 1.54 1.30 96 1010.8
20260509202306 66 114 0.0 4.0 0.00 1.54 1.30 96 1010.9
20260509202202 66 43 0.0 4.0 0.00 1.54 1.30 96 1011.0
20260509202102 66 124 3.0 4.0 0.00 1.54 1.30 96 1010.9
20260509202007 66 160 0.0 4.0 0.00 1.54 1.30 96 1010.9
20260509201902 66 206 0.0 4.0 0.00 1.54 1.30 96 1011.1
20260509201702 66 206 0.0 4.0 0.00 1.54 1.30 96 1011.0
20260509201602 66 283 0.0 4.0 0.00 1.54 1.30 96 1011.1
20260509201506 66 282 0.0 4.0 0.00 1.54 1.30 96 1011.1
20260509201403 66 132 2.0 4.0 0.00 1.54 1.30 96 1011.0
20260509201303 66 158 0.0 5.0 0.00 1.54 1.30 96 1011.0
20260509201203 66 146 1.0 5.0 0.00 1.54 1.30 96 1011.0
20260509201006 66 167 0.0 5.0 0.00 1.54 1.30 96 1011.1
20260509200903 65 218 0.0 5.0 0.00 1.54 1.30 96 1011.1
20260509200802 66 99 3.0 6.0 0.00 1.54 1.30 96 1011.2
20260509200703 66 64 1.0 6.0 0.00 1.54 1.30 96 1011.1
20260509200604 65 237 0.0 6.0 0.00 1.54 1.30 96 1011.2
20260509200509 66 212 0.0 6.0 0.00 1.54 1.30 96 1011.2
20260509200302 65 169 4.0 6.0 0.00 1.54 1.30 96 1011.3
20260509200202 65 84 0.0 6.0 0.00 1.54 1.30 96 1011.3
20260509200104 65 165 3.0 6.0 0.00 1.54 1.30 96 1011.4
20260509200006 65 54 3.0 6.0 0.00 1.54 1.30 96 1011.4
20260509195803 65 181 3.0 5.0 0.00 1.56 1.30 96 1011.5
20260509195603 65 144 2.0 6.0 0.00 1.56 1.30 96 1011.6
20260509195506 66 134 3.0 6.0 0.00 1.56 1.30 96 1011.6
20260509195403 66 115 3.0 6.0 0.00 1.56 1.30 96 1011.6
20260509195202 66 139 1.0 6.0 0.00 1.56 1.30 96 1011.8
20260509195103 66 139 3.0 6.0 0.00 1.56 1.30 96 1011.9
20260509195008 66 127 1.0 6.0 0.00 1.56 1.30 96 1011.9
20260509194903 66 129 2.0 6.0 0.00 1.56 1.30 96 1012.0
20260509194803 66 131 5.0 6.0 0.00 1.56 1.30 96 1012.1
20260509194703 66 142 3.0 4.0 0.00 1.56 1.30 96 1012.2
20260509194602 66 131 0.0 4.0 0.00 1.56 1.30 96 1012.2
20260509194506 65 143 0.0 4.0 0.00 1.56 1.30 96 1012.2
20260509194404 66 158 1.0 4.0 0.00 1.56 1.30 96 1012.2
20260509194303 65 188 0.0 4.0 0.00 1.56 1.30 96 1012.3
20260509194203 65 30 0.0 4.0 0.00 1.56 1.30 96 1012.2
20260509194101 65 142 0.0 4.0 0.00 1.56 1.30 96 1012.3
20260509194006 66 108 0.0 4.0 0.00 1.56 1.30 96 1012.3
20260509193903 65 139 2.0 4.0 0.00 1.56 1.30 96 1012.3
20260509193803 65 142 1.0 4.0 0.00 1.56 1.30 96 1012.2
20260509193703 65 139 0.0 4.0 0.00 1.56 1.30 96 1012.4
20260509193505 65 148 2.0 4.0 0.00 1.56 1.30 96 1012.4
20260509193403 65 221 0.0 4.0 0.00 1.56 1.30 96 1012.4
20260509193303 66 124 0.0 4.0 0.00 1.56 1.30 96 1012.3
20260509193204 66 141 1.0 5.0 0.00 1.56 1.30 96 1012.2
20260509193103 66 150 0.0 5.0 0.00 1.56 1.30 96 1012.3
20260509193006 66 192 2.0 5.0 0.00 1.56 1.30 96 1012.2
20260509192903 66 144 0.0 5.0 0.00 1.56 1.30 96 1012.3
20260509192802 66 176 0.0 5.0 0.00 1.56 1.30 96 1012.3
20260509192702 66 360 3.0 5.0 0.00 1.56 1.30 96 1012.3
20260509192603 66 304 0.0 5.0 0.00 1.56 1.30 96 1012.3
20260509192305 66 118 4.0 5.0 0.00 1.56 1.30 96 1012.3
20260509192202 65 155 0.0 5.0 0.00 1.56 1.30 96 1012.2
20260509192104 65 68 3.0 5.0 0.00 1.56 1.30 96 1012.2
20260509192006 65 129 2.0 5.0 0.00 1.56 1.30 96 1012.3
20260509191904 65 77 2.0 5.0 0.00 1.56 1.30 96 1012.2
20260509191703 66 113 0.0 5.0 0.00 1.56 1.30 97 1012.3
20260509191603 66 155 0.0 5.0 0.00 1.56 1.30 97 1012.4
20260509191506 66 201 2.0 5.0 0.00 1.56 1.30 96 1012.4
20260509191404 65 323 0.0 5.0 0.00 1.56 1.30 97 1012.3
20260509191302 65 143 1.0 6.0 0.00 1.56 1.30 97 1012.4
20260509191204 65 105 0.0 6.0 0.00 1.56 1.30 97 1012.4
20260509191103 65 85 0.0 6.0 0.00 1.56 1.30 97 1012.3
20260509191006 65 143 4.0 6.0 0.00 1.56 1.30 97 1012.3
20260509190802 65 89 2.0 6.0 0.00 1.56 1.30 97 1012.5
20260509190703 65 125 2.0 6.0 0.00 1.56 1.30 97 1012.6
20260509190604 65 6 0.0 6.0 0.00 1.56 1.30 96 1012.6
20260509190505 66 130 3.0 6.0 0.00 1.56 1.30 97 1012.6
20260509190404 66 319 1.0 6.0 0.00 1.56 1.30 97 1012.6
20260509190303 66 188 2.0 5.0 0.00 1.56 1.30 97 1012.7
20260509190008 65 134 3.0 5.0 0.00 1.56 1.30 97 1012.8
20260509185902 65 70 3.0 5.0 0.00 1.56 1.30 97 1012.8
20260509185702 65 203 3.0 5.0 0.00 1.56 1.30 97 1012.9
20260509185604 65 135 4.0 5.0 0.00 1.56 1.30 97 1012.8
20260509185506 66 114 1.0 5.0 0.00 1.56 1.30 97 1012.8
20260509185404 66 181 1.0 5.0 0.01 1.56 1.30 97 1012.6
20260509185306 66 186 2.0 5.0 0.01 1.56 1.30 97 1012.5
20260509185203 66 220 2.0 5.0 0.01 1.56 1.30 97 1012.5
20260509185103 65 65 3.0 5.0 0.01 1.56 1.30 97 1012.5
20260509185007 65 192 2.0 5.0 0.01 1.56 1.30 97 1012.5
20260509184902 65 106 1.0 4.0 0.01 1.56 1.30 97 1012.5
20260509184803 65 124 0.0 4.0 0.01 1.56 1.30 97 1012.6
20260509184702 66 47 2.0 5.0 0.01 1.56 1.30 97 1012.6
20260509184506 66 137 0.0 5.0 0.01 1.56 1.30 97 1012.7
20260509184403 65 160 2.0 5.0 0.01 1.56 1.30 97 1012.8
20260509184303 65 181 1.0 5.0 0.01 1.56 1.30 97 1012.8
20260509184203 65 162 3.0 5.0 0.02 1.56 1.30 96 1013.0
20260509184103 65 243 2.0 5.0 0.02 1.56 1.30 97 1013.1
20260509184007 65 185 3.0 5.0 0.02 1.56 1.30 97 1013.1
20260509183804 65 203 2.0 5.0 0.03 1.56 1.30 96 1013.1
20260509183702 65 169 3.0 5.0 0.03 1.56 1.30 97 1013.1
20260509183507 65 194 3.0 6.0 0.03 1.56 1.30 97 1013.0
20260509183303 65 225 0.0 6.0 0.03 1.56 1.30 97 1013.1
20260509183102 65 169 0.0 6.0 0.03 1.56 1.30 96 1013.0
20260509183007 65 293 0.0 6.0 0.03 1.56 1.30 96 1013.0
20260509182902 64 204 0.0 6.0 0.03 1.56 1.30 96 1013.0
20260509182704 65 186 1.0 6.0 0.03 1.56 1.30 96 1013.1
20260509182603 65 179 4.0 6.0 0.04 1.56 1.30 97 1013.2
20260509182506 65 233 0.0 6.0 0.04 1.56 1.30 97 1013.3
20260509182403 65 143 4.0 6.0 0.05 1.56 1.30 97 1013.3
20260509182306 65 219 2.0 6.0 0.05 1.56 1.30 97 1013.3
20260509182203 65 203 3.0 6.0 0.05 1.56 1.30 96 1013.3
20260509182103 65 198 3.0 6.0 0.05 1.56 1.30 97 1013.4
20260509182006 65 155 4.0 6.0 0.05 1.56 1.30 97 1013.5
20260509181903 65 139 3.0 6.0 0.05 1.56 1.30 97 1013.5
20260509181802 65 208 2.0 6.0 0.05 1.56 1.30 96 1013.5
20260509181703 65 105 3.0 6.0 0.05 1.56 1.30 96 1013.4
20260509181603 65 211 2.0 6.0 0.05 1.56 1.30 96 1013.3
20260509181506 65 155 4.0 6.0 0.05 1.56 1.30 96 1013.4
20260509181402 65 150 4.0 7.0 0.05 1.56 1.30 97 1013.3
20260509181203 65 184 2.0 7.0 0.05 1.56 1.30 97 1013.5
20260509181103 65 203 1.0 7.0 0.05 1.56 1.30 97 1013.5
20260509181006 65 167 2.0 7.0 0.05 1.56 1.30 97 1013.4
20260509180903 65 153 0.0 7.0 0.05 1.56 1.30 97 1013.5
20260509180803 65 107 2.0 7.0 0.05 1.56 1.30 97 1013.6
20260509180603 65 167 0.0 7.0 0.06 1.56 1.30 97 1013.6
20260509180403 65 172 3.0 7.0 0.06 1.56 1.30 97 1013.5
20260509180204 65 201 3.0 7.0 0.06 1.56 1.30 97 1013.4
20260509180104 65 202 2.0 7.0 0.06 1.56 1.30 97 1013.4
20260509180007 65 151 4.0 7.0 0.06 1.56 1.30 97 1013.4
20260509175904 65 153 2.0 7.0 0.06 1.56 1.30 97 1013.2
20260509175804 65 146 2.0 7.0 0.06 1.56 1.30 97 1013.2
20260509175703 65 150 4.0 7.0 0.07 1.56 1.30 97 1013.2
20260509175603 65 167 4.0 7.0 0.07 1.56 1.30 97 1013.2
20260509175403 65 155 4.0 7.0 0.07 1.55 1.29 97 1013.2
20260509175306 65 142 6.0 7.0 0.07 1.55 1.29 97 1013.3
20260509175202 65 150 4.0 6.0 0.07 1.55 1.29 97 1013.3
20260509175103 65 150 4.0 6.0 0.07 1.55 1.29 97 1013.5
20260509175006 65 157 5.0 6.0 0.07 1.55 1.29 97 1013.5
20260509174903 65 141 3.0 6.0 0.08 1.55 1.29 97 1013.5
20260509174802 65 155 2.0 6.0 0.08 1.55 1.29 97 1013.6
20260509174703 65 191 2.0 6.0 0.08 1.55 1.29 97 1013.7
20260509174603 65 164 3.0 6.0 0.08 1.55 1.29 97 1013.8
20260509174505 65 188 4.0 6.0 0.08 1.55 1.29 97 1013.8
20260509174403 65 158 3.0 5.0 0.08 1.55 1.29 97 1013.8
20260509174303 65 150 4.0 5.0 0.08 1.55 1.29 97 1014.0
20260509174202 65 162 2.0 5.0 0.08 1.54 1.28 97 1013.9
20260509173902 65 179 0.0 4.0 0.07 1.53 1.27 97 1014.1
20260509173803 65 186 3.0 4.0 0.07 1.53 1.27 97 1014.1
20260509173702 65 166 0.0 4.0 0.07 1.53 1.27 97 1014.1
20260509173603 65 195 1.0 4.0 0.08 1.53 1.27 97 1014.0
20260509173506 65 181 2.0 4.0 0.08 1.53 1.27 97 1014.1
20260509173401 65 155 3.0 4.0 0.08 1.53 1.27 97 1014.0
20260509173304 65 174 2.0 4.0 0.09 1.53 1.27 97 1014.0
20260509173202 65 164 2.0 4.0 0.09 1.53 1.27 97 1014.0
20260509173103 65 172 2.0 4.0 0.10 1.53 1.27 96 1013.9
20260509173006 65 191 3.0 4.0 0.10 1.53 1.27 96 1013.9
20260509172804 64 158 2.0 4.0 0.10 1.53 1.27 96 1013.8
20260509172702 64 162 3.0 4.0 0.11 1.52 1.26 96 1014.0
20260509172604 64 158 3.0 5.0 0.11 1.52 1.26 96 1013.9
20260509172403 64 176 2.0 5.0 0.13 1.51 1.25 96 1013.9
20260509172203 64 125 2.0 5.0 0.15 1.51 1.25 96 1014.1
20260509172104 64 179 3.0 5.0 0.15 1.51 1.25 96 1014.1
20260509172006 64 188 2.0 5.0 0.15 1.51 1.25 96 1014.1
20260509171902 64 199 3.0 5.0 0.16 1.51 1.25 96 1013.9
20260509171804 64 165 3.0 5.0 0.16 1.51 1.25 96 1013.9
20260509171603 64 186 3.0 5.0 0.19 1.51 1.25 97 1014.0
20260509171506 64 166 2.0 4.0 0.19 1.51 1.25 96 1014.0
20260509171402 64 181 3.0 4.0 0.20 1.51 1.25 97 1014.0
20260509171303 64 160 3.0 4.0 0.21 1.51 1.25 96 1013.9
20260509171204 64 160 3.0 4.0 0.21 1.51 1.25 96 1014.0
20260509171103 64 155 3.0 4.0 0.21 1.51 1.25 96 1014.0
20260509171007 64 157 3.0 4.0 0.21 1.51 1.25 96 1014.0
20260509170903 64 155 3.0 4.0 0.22 1.51 1.25 96 1014.0
20260509170803 64 144 3.0 4.0 0.23 1.51 1.25 96 1014.0
20260509170702 64 153 3.0 4.0 0.24 1.51 1.25 97 1014.1
20260509170603 64 155 2.0 4.0 0.23 1.50 1.24 97 1014.2
20260509170505 64 178 3.0 4.0 0.23 1.50 1.24 96 1014.2
20260509170303 64 169 2.0 3.0 0.25 1.50 1.24 96 1014.1
20260509170203 64 212 1.0 3.0 0.25 1.50 1.24 96 1014.1
20260509170008 64 194 2.0 3.0 0.28 1.50 1.24 97 1014.0
20260509165903 64 234 2.0 2.0 0.31 1.50 1.24 97 1013.9
20260509165702 64 260 0.0 3.0 0.34 1.49 1.23 97 1013.9
20260509165505 64 335 0.0 3.0 0.35 1.49 1.23 97 1013.9
20260509165403 64 335 0.0 3.0 0.35 1.48 1.22 96 1013.9
20260509165306 64 335 0.0 3.0 0.35 1.48 1.22 97 1014.0
20260509165203 64 335 0.0 3.0 0.36 1.48 1.22 97 1013.9
20260509165103 64 335 0.0 3.0 0.36 1.48 1.22 97 1013.9
20260509164902 64 228 1.0 3.0 0.36 1.47 1.21 97 1014.0
20260509164804 64 221 0.0 3.0 0.36 1.47 1.21 97 1014.0
20260509164702 64 225 0.0 3.0 0.37 1.47 1.21 96 1014.0
20260509164603 64 255 0.0 3.0 0.37 1.47 1.21 96 1014.0
20260509164403 64 220 0.0 2.0 0.38 1.47 1.21 96 1013.8
20260509164302 64 220 0.0 2.0 0.38 1.47 1.21 96 1013.9
20260509164204 64 238 0.0 2.0 0.37 1.46 1.20 96 1013.8
20260509164102 64 233 0.0 3.0 0.37 1.46 1.20 96 1013.9
20260509164006 64 302 0.0 3.0 0.37 1.46 1.20 96 1013.9
20260509163902 64 302 0.0 3.0 0.38 1.46 1.20 97 1014.1
20260509163803 64 260 0.0 3.0 0.39 1.46 1.20 96 1014.1
20260509163703 64 254 0.0 3.0 0.39 1.46 1.20 96 1014.1
20260509163603 64 281 0.0 3.0 0.39 1.45 1.19 96 1014.1
20260509163403 64 321 0.0 3.0 0.40 1.44 1.18 96 1014.2
20260509163304 64 302 0.0 3.0 0.40 1.44 1.18 96 1014.2
20260509163204 64 277 3.0 3.0 0.42 1.44 1.18 96 1014.2
20260509163103 64 268 2.0 3.0 0.42 1.43 1.17 96 1014.2
20260509163007 64 250 2.0 3.0 0.42 1.43 1.17 96 1014.2
20260509162902 64 167 0.0 3.0 0.43 1.43 1.17 97 1014.2
20260509162603 64 235 0.0 3.0 0.43 1.41 1.15 96 1014.2
20260509162505 64 235 0.0 3.0 0.42 1.39 1.13 96 1014.3
20260509162403 64 235 0.0 3.0 0.42 1.38 1.12 96 1014.3
20260509162306 64 267 0.0 3.0 0.42 1.37 1.11 96 1014.3
20260509162202 64 287 3.0 3.0 0.41 1.36 1.10 96 1014.4
20260509162101 64 302 3.0 3.0 0.41 1.36 1.10 96 1014.4
20260509162006 64 295 0.0 3.0 0.40 1.35 1.09 96 1014.4
20260509161903 64 153 0.0 4.0 0.40 1.35 1.09 96 1014.5
20260509161803 64 10 0.0 4.0 0.40 1.34 1.08 96 1014.5
20260509161702 64 274 2.0 5.0 0.39 1.33 1.07 96 1014.5
20260509161603 64 227 2.0 5.0 0.39 1.32 1.06 96 1014.5
20260509161506 64 249 2.0 5.0 0.38 1.31 1.05 96 1014.5
20260509161303 63 125 0.0 5.0 0.38 1.30 1.04 96 1014.6
20260509161203 63 181 0.0 5.0 0.38 1.30 1.04 96 1014.6
20260509161103 63 194 2.0 5.0 0.38 1.30 1.04 96 1014.8
20260509161006 63 207 2.0 5.0 0.37 1.29 1.03 96 1014.8
20260509160902 64 221 4.0 6.0 0.38 1.29 1.03 96 1014.8
20260509160803 64 226 5.0 6.0 0.38 1.28 1.02 96 1014.8
20260509160703 64 238 4.0 6.0 0.38 1.27 1.01 96 1014.8
20260509160603 64 227 0.0 6.0 0.39 1.27 1.01 96 1014.8
20260509160506 64 185 2.0 6.0 0.38 1.26 1.00 96 1014.8
20260509160403 64 219 2.0 6.0 0.41 1.26 1.00 96 1014.7
20260509160203 64 204 0.0 6.0 0.42 1.24 0.98 96 1014.7
20260509160104 64 309 0.0 6.0 0.40 1.22 0.96 96 1014.8
20260509155902 64 285 1.0 5.0 0.39 1.19 0.93 96 1015.5
20260509155801 64 248 3.0 5.0 0.37 1.17 0.91 97 1015.6
20260509155602 64 224 2.0 5.0 0.35 1.14 0.88 96 1015.5
20260509155505 64 232 3.0 5.0 0.34 1.13 0.87 96 1015.5
20260509155401 64 221 2.0 5.0 0.34 1.13 0.87 96 1015.2
20260509155305 64 229 3.0 5.0 0.34 1.13 0.87 96 1014.9
20260509155201 64 235 2.0 5.0 0.34 1.12 0.86 96 1014.7
20260509155102 64 223 4.0 5.0 0.34 1.12 0.86 96 1014.5
20260509155006 64 230 4.0 4.0 0.34 1.11 0.85 96 1014.4
20260509154902 64 221 3.0 4.0 0.34 1.11 0.85 96 1014.2
20260509154803 64 221 3.0 4.0 0.34 1.10 0.84 96 1014.1
20260509154701 64 215 1.0 4.0 0.35 1.10 0.84 96 1014.0
20260509154602 64 186 2.0 4.0 0.36 1.10 0.84 96 1014.0
20260509154506 64 181 2.0 4.0 0.37 1.10 0.84 96 1013.9
20260509154402 64 176 2.0 4.0 0.37 1.09 0.83 96 1013.9
20260509154302 64 167 2.0 3.0 0.37 1.09 0.83 96 1013.9
20260509154201 64 197 2.0 3.0 0.37 1.09 0.83 96 1013.9
20260509154102 64 203 2.0 3.0 0.36 1.08 0.82 96 1014.0
20260509153901 64 194 3.0 3.0 0.37 1.08 0.82 96 1014.0
20260509153801 64 188 3.0 3.0 0.36 1.07 0.81 96 1014.1
20260509153402 63 236 1.0 4.0 0.34 1.04 0.78 96 1014.0
20260509153302 63 243 2.0 4.0 0.34 1.03 0.77 96 1014.0
20260509153203 63 176 0.0 4.0 0.33 1.02 0.76 96 1014.0
20260509153102 63 237 0.0 4.0 0.32 1.01 0.75 96 1014.0
20260509153009 63 218 2.0 4.0 0.32 1.01 0.75 96 1014.0
20260509152902 63 209 2.0 4.0 0.32 1.00 0.74 96 1014.2
20260509152801 63 190 2.0 4.0 0.32 1.00 0.74 96 1014.1
20260509152702 63 201 3.0 4.0 0.31 0.99 0.73 96 1014.1